Wetterdaten: Donnerstag, 12.09.2019
Datum Zeit Temp. Aussen Temp. o. S. +5cm Feuchte Auss Luftdruck Regen Sonnenschein Regendauer Solar Windben Empfang
12.09.2019 00:00 16,4 C 15,6 C 14,4 C 90 % 1024,1 hPa 0,0 l/m 0 min 0 min 0 W/m 19,3 km/h (3 Bft) 97,87 %
12.09.2019 00:02 16,4 C 15,6 C 14,4 C 90 % 1024,0 hPa 0,0 l/m 0 min 0 min 0 W/m 0,0 km/h (0 Bft) 7,14 %
12.09.2019 00:04 16,4 C 15,6 C 14,4 C 90 % 1024,0 hPa 0,0 l/m 0 min 0 min 0 W/m 6,4 km/h (2 Bft) 75,61 %
12.09.2019 00:08 16,4 C 15,6 C 14,4 C 90 % 1024,0 hPa 0,0 l/m 0 min 0 min 0 W/m 16,1 km/h (3 Bft) 95,74 %
12.09.2019 00:10 16,4 C 15,6 C 14,4 C 90 % 1024,0 hPa 0,0 l/m 0 min 0 min 0 W/m 6,4 km/h (2 Bft) 95,65 %
12.09.2019 00:12 16,4 C 15,6 C 14,4 C 90 % 1024,1 hPa 0,0 l/m 0 min 0 min 0 W/m 9,7 km/h (2 Bft) 93,62 %
12.09.2019 00:14 16,4 C 15,6 C 14,4 C 91 % 1024,1 hPa 0,0 l/m 0 min 0 min 0 W/m 3,2 km/h (1 Bft) 95,74 %
12.09.2019 00:16 16,4 C 15,6 C 14,4 C 91 % 1024,1 hPa 0,0 l/m 0 min 0 min 0 W/m 9,7 km/h (2 Bft) 95,74 %
12.09.2019 00:18 16,4 C 15,6 C 14,4 C 91 % 1024,1 hPa 0,0 l/m 0 min 0 min 0 W/m 6,4 km/h (2 Bft) 93,62 %
12.09.2019 00:20 16,4 C 15,6 C 14,4 C 91 % 1024,1 hPa 0,0 l/m 0 min 0 min 0 W/m 6,4 km/h (2 Bft) 95,65 %
12.09.2019 00:22 16,4 C 15,6 C 15,0 C 91 % 1024,1 hPa 0,0 l/m 0 min 0 min 0 W/m 16,1 km/h (3 Bft) 93,62 %
12.09.2019 00:24 16,4 C 15,0 C 14,4 C 91 % 1024,2 hPa 0,0 l/m 0 min 0 min 0 W/m 9,7 km/h (2 Bft) 95,74 %
12.09.2019 00:26 16,4 C 15,0 C 14,4 C 91 % 1024,2 hPa 0,0 l/m 0 min 0 min 0 W/m 9,7 km/h (2 Bft) 95,74 %
12.09.2019 00:28 16,4 C 15,0 C 14,4 C 91 % 1024,2 hPa 0,0 l/m 0 min 0 min 0 W/m 9,7 km/h (2 Bft) 95,74 %
12.09.2019 00:30 16,4 C 15,0 C 14,4 C 91 % 1024,2 hPa 0,0 l/m 0 min 0 min 0 W/m 3,2 km/h (1 Bft) 95,74 %
12.09.2019 00:32 16,4 C 15,0 C 14,4 C 91 % 1024,3 hPa 0,0 l/m 0 min 0 min 0 W/m 6,4 km/h (2 Bft) 95,74 %
12.09.2019 00:34 16,4 C 15,0 C 14,4 C 91 % 1024,3 hPa 0,0 l/m 0 min 0 min 0 W/m 6,4 km/h (2 Bft) 95,65 %
12.09.2019 00:36 16,4 C 15,0 C 15,0 C 91 % 1024,2 hPa 0,0 l/m 0 min 0 min 0 W/m 3,2 km/h (1 Bft) 93,62 %
12.09.2019 00:38 16,4 C 15,6 C 15,0 C 92 % 1024,2 hPa 0,0 l/m 0 min 0 min 0 W/m 19,3 km/h (3 Bft) 95,74 %
12.09.2019 00:40 16,4 C 15,6 C 15,0 C 92 % 1024,2 hPa 0,0 l/m 0 min 0 min 0 W/m 6,4 km/h (2 Bft) 97,87 %
12.09.2019 00:42 16,4 C 15,6 C 15,0 C 92 % 1024,2 hPa 0,0 l/m 0 min 0 min 0 W/m 9,7 km/h (2 Bft) 97,87 %
12.09.2019 00:44 16,4 C 15,0 C 15,0 C 92 % 1024,1 hPa 0,0 l/m 0 min 0 min 0 W/m 9,7 km/h (2 Bft) 97,83 %
12.09.2019 00:46 16,4 C 15,0 C 15,0 C 92 % 1024,2 hPa 0,0 l/m 0 min 0 min 0 W/m 19,3 km/h (3 Bft) 97,87 %
12.09.2019 00:48 16,4 C 15,0 C 15,0 C 92 % 1024,2 hPa 0,0 l/m 0 min 0 min 0 W/m 19,3 km/h (3 Bft) 97,87 %
12.09.2019 00:50 16,4 C 15,6 C 15,0 C 92 % 1024,2 hPa 0,0 l/m 0 min 0 min 0 W/m 9,7 km/h (2 Bft) 97,87 %
12.09.2019 00:52 16,4 C 15,0 C 15,0 C 92 % 1024,2 hPa 0,0 l/m 0 min 0 min 0 W/m 9,7 km/h (2 Bft) 95,74 %
12.09.2019 00:54 16,4 C 15,0 C 15,0 C 92 % 1024,1 hPa 0,0 l/m 0 min 0 min 0 W/m 6,4 km/h (2 Bft) 95,74 %
12.09.2019 00:56 16,4 C 15,0 C 15,0 C 92 % 1024,2 hPa 0,0 l/m 0 min 0 min 0 W/m 12,9 km/h (3 Bft) 95,65 %
12.09.2019 00:58 16,3 C 15,0 C 15,0 C 93 % 1024,2 hPa 0,0 l/m 0 min 0 min 0 W/m 12,9 km/h (3 Bft) 93,62 %
12.09.2019 01:00 16,3 C 15,0 C 15,0 C 93 % 1024,2 hPa 0,0 l/m 0 min 0 min 0 W/m 12,9 km/h (3 Bft) 97,87 %
12.09.2019 01:02 16,3 C 15,6 C 15,0 C 93 % 1024,3 hPa 0,0 l/m 0 min 0 min 0 W/m 12,9 km/h (3 Bft) 91,49 %
12.09.2019 01:04 16,3 C 15,6 C 15,0 C 93 % 1024,3 hPa 0,0 l/m 0 min 0 min 0 W/m 6,4 km/h (2 Bft) 97,87 %
12.09.2019 01:06 16,3 C 15,6 C 15,0 C 93 % 1024,3 hPa 0,0 l/m 0 min 0 min 0 W/m 9,7 km/h (2 Bft) 97,87 %
12.09.2019 01:08 16,3 C 15,6 C 15,0 C 93 % 1024,4 hPa 0,0 l/m 0 min 0 min 0 W/m 9,7 km/h (2 Bft) 97,96 %
12.09.2019 01:10 16,3 C 15,6 C 15,0 C 93 % 1024,4 hPa 0,0 l/m 0 min 0 min 0 W/m 16,1 km/h (3 Bft) 97,87 %
12.09.2019 01:12 16,3 C 15,0 C 15,0 C 93 % 1024,4 hPa 0,0 l/m 0 min 0 min 0 W/m 9,7 km/h (2 Bft) 97,87 %
12.09.2019 01:14 16,3 C 15,6 C 15,0 C 93 % 1024,5 hPa 0,0 l/m 0 min 0 min 0 W/m 6,4 km/h (2 Bft) 95,74 %
12.09.2019 01:16 16,3 C 15,0 C 15,0 C 93 % 1024,5 hPa 0,0 l/m 0 min 0 min 0 W/m 6,4 km/h (2 Bft) 95,74 %
12.09.2019 01:18 16,3 C 15,0 C 15,0 C 93 % 1024,6 hPa 0,0 l/m 0 min 0 min 0 W/m 9,7 km/h (2 Bft) 97,83 %
12.09.2019 01:20 16,2 C 15,0 C 15,0 C 94 % 1024,6 hPa 0,0 l/m 0 min 0 min 0 W/m 6,4 km/h (2 Bft) 97,87 %
12.09.2019 01:22 16,2 C 15,0 C 15,0 C 94 % 1024,6 hPa 0,0 l/m 0 min 0 min 0 W/m 6,4 km/h (2 Bft) 97,87 %
12.09.2019 01:24 16,2 C 15,0 C 15,0 C 94 % 1024,6 hPa 0,0 l/m 0 min 0 min 0 W/m 0,0 km/h (0 Bft) 97,87 %
12.09.2019 01:26 16,2 C 15,6 C 15,0 C 94 % 1024,5 hPa 0,0 l/m 0 min 0 min 0 W/m 0,0 km/h (0 Bft) 97,87 %
12.09.2019 01:28 16,2 C 15,6 C 15,0 C 94 % 1024,5 hPa 0,0 l/m 0 min 0 min 0 W/m 3,2 km/h (1 Bft) 97,87 %
12.09.2019 01:30 16,2 C 15,6 C 15,0 C 94 % 1024,5 hPa 0,0 l/m 0 min 0 min 0 W/m 0,0 km/h (0 Bft) 97,83 %
12.09.2019 01:32 16,2 C 15,6 C 15,0 C 94 % 1024,5 hPa 0,0 l/m 0 min 0 min 0 W/m 3,2 km/h (1 Bft) 95,74 %
12.09.2019 01:34 16,2 C 15,6 C 15,0 C 94 % 1024,5 hPa 0,0 l/m 0 min 0 min 0 W/m 3,2 km/h (1 Bft) 97,87 %
12.09.2019 01:36 16,2 C 15,6 C 15,0 C 94 % 1024,5 hPa 0,0 l/m 0 min 0 min 0 W/m 6,4 km/h (2 Bft) 100,00 %
12.09.2019 01:38 16,2 C 15,6 C 15,0 C 94 % 1024,6 hPa 0,0 l/m 0 min 0 min 0 W/m 3,2 km/h (1 Bft) 100,00 %
12.09.2019 01:40 16,2 C 15,6 C 15,0 C 94 % 1024,6 hPa 0,0 l/m 0 min 0 min 0 W/m 6,4 km/h (2 Bft) 100,00 %
12.09.2019 01:42 16,2 C 15,6 C 15,0 C 94 % 1024,7 hPa 0,0 l/m 0 min 0 min 0 W/m 3,2 km/h (1 Bft) 95,74 %
12.09.2019 01:44 16,2 C 15,6 C 15,0 C 94 % 1024,7 hPa 0,0 l/m 0 min 0 min 0 W/m 3,2 km/h (1 Bft) 100,00 %
12.09.2019 01:46 16,2 C 15,0 C 15,0 C 94 % 1024,7 hPa 0,0 l/m 0 min 0 min 0 W/m 3,2 km/h (1 Bft) 100,00 %
12.09.2019 01:48 16,2 C 15,0 C 15,0 C 94 % 1024,6 hPa 0,0 l/m 0 min 0 min 0 W/m 6,4 km/h (2 Bft) 100,00 %
12.09.2019 01:50 16,2 C 15,0 C 15,0 C 94 % 1024,6 hPa 0,0 l/m 0 min 0 min 0 W/m 0,0 km/h (0 Bft) 97,87 %
12.09.2019 01:52 16,2 C 15,0 C 15,0 C 94 % 1024,6 hPa 0,0 l/m 0 min 0 min 0 W/m 6,4 km/h (2 Bft) 100,00 %
12.09.2019 01:54 16,2 C 15,0 C 15,0 C 94 % 1024,6 hPa 0,0 l/m 0 min 0 min 0 W/m 0,0 km/h (0 Bft) 100,00 %
12.09.2019 01:56 16,2 C 15,0 C 15,0 C 94 % 1024,6 hPa 0,0 l/m 0 min 0 min 0 W/m 0,0 km/h (0 Bft) 100,00 %
12.09.2019 01:58 16,2 C 15,0 C 15,0 C 94 % 1024,6 hPa 0,0 l/m 0 min 0 min 0 W/m 3,2 km/h (1 Bft) 100,00 %
12.09.2019 02:00 16,2 C 15,0 C 15,0 C 94 % 1024,6 hPa 0,0 l/m 0 min 0 min 0 W/m 0,0 km/h (0 Bft) 100,00 %
12.09.2019 02:02 16,2 C 15,0 C 15,0 C 94 % 1024,6 hPa 0,0 l/m 0 min 0 min 0 W/m 0,0 km/h (0 Bft) 100,00 %
12.09.2019 02:04 16,2 C 15,0 C 15,0 C 94 % 1024,6 hPa 0,0 l/m 0 min 0 min 0 W/m 0,0 km/h (0 Bft) 100,00 %
12.09.2019 02:06 16,2 C 15,6 C 15,0 C 94 % 1024,6 hPa 0,0 l/m 0 min 0 min 0 W/m 0,0 km/h (0 Bft) 100,00 %
12.09.2019 02:08 16,2 C 15,6 C 15,0 C 94 % 1024,6 hPa 0,0 l/m 0 min 0 min 0 W/m 3,2 km/h (1 Bft) 100,00 %
12.09.2019 02:10 16,2 C 15,6 C 15,0 C 94 % 1024,7 hPa 0,0 l/m 0 min 0 min 0 W/m 0,0 km/h (0 Bft) 100,00 %
12.09.2019 02:12 16,2 C 15,6 C 15,0 C 94 % 1024,7 hPa 0,0 l/m 0 min 0 min 0 W/m 3,2 km/h (1 Bft) 100,00 %
12.09.2019 02:14 16,2 C 15,6 C 15,0 C 94 % 1024,7 hPa 0,0 l/m 0 min 0 min 0 W/m 0,0 km/h (0 Bft) 100,00 %
12.09.2019 02:16 16,2 C 15,6 C 15,0 C 94 % 1024,7 hPa 0,0 l/m 0 min 0 min 0 W/m 3,2 km/h (1 Bft) 100,00 %
12.09.2019 02:18 16,2 C 15,6 C 15,0 C 95 % 1024,8 hPa 0,0 l/m 0 min 0 min 0 W/m 3,2 km/h (1 Bft) 100,00 %
12.09.2019 02:20 16,2 C 15,6 C 15,0 C 95 % 1024,8 hPa 0,0 l/m 0 min 0 min 0 W/m 0,0 km/h (0 Bft) 100,00 %
12.09.2019 02:22 16,2 C 15,6 C 15,0 C 95 % 1024,8 hPa 0,0 l/m 0 min 0 min 0 W/m 3,2 km/h (1 Bft) 100,00 %
12.09.2019 02:24 16,2 C 15,6 C 15,0 C 95 % 1024,8 hPa 0,0 l/m 0 min 0 min 0 W/m 0,0 km/h (0 Bft) 100,00 %
12.09.2019 02:26 16,2 C 15,6 C 15,0 C 95 % 1024,9 hPa 0,0 l/m 0 min 0 min 0 W/m 3,2 km/h (1 Bft) 97,87 %
12.09.2019 02:28 16,2 C 15,6 C 15,0 C 95 % 1024,9 hPa 0,0 l/m 0 min 0 min 0 W/m 6,4 km/h (2 Bft) 100,00 %
12.09.2019 02:30 16,3 C 15,6 C 15,0 C 95 % 1024,9 hPa 0,0 l/m 0 min 0 min 0 W/m 3,2 km/h (1 Bft) 97,87 %
12.09.2019 02:32 16,2 C 15,6 C 15,0 C 95 % 1024,9 hPa 0,0 l/m 0 min 0 min 0 W/m 3,2 km/h (1 Bft) 100,00 %
12.09.2019 02:34 16,3 C 15,6 C 15,0 C 95 % 1024,9 hPa 0,0 l/m 0 min 0 min 0 W/m 3,2 km/h (1 Bft) 100,00 %
12.09.2019 02:36 16,3 C 15,6 C 15,0 C 95 % 1024,9 hPa 0,0 l/m 0 min 0 min 0 W/m 3,2 km/h (1 Bft) 97,87 %
12.09.2019 02:38 16,3 C 15,6 C 15,0 C 95 % 1024,9 hPa 0,0 l/m 0 min 0 min 0 W/m 3,2 km/h (1 Bft) 95,74 %
12.09.2019 02:40 16,3 C 15,6 C 15,0 C 95 % 1024,9 hPa 0,0 l/m 0 min 0 min 0 W/m 6,4 km/h (2 Bft) 95,65 %
12.09.2019 02:42 16,3 C 15,6 C 15,0 C 95 % 1024,9 hPa 0,0 l/m 0 min 0 min 0 W/m 6,4 km/h (2 Bft) 100,00 %
12.09.2019 02:44 16,3 C 15,6 C 15,0 C 95 % 1024,9 hPa 0,0 l/m 0 min 0 min 0 W/m 6,4 km/h (2 Bft) 100,00 %
12.09.2019 02:46 16,3 C 15,6 C 15,0 C 95 % 1024,9 hPa 0,0 l/m 0 min 0 min 0 W/m 3,2 km/h (1 Bft) 97,87 %
12.09.2019 02:48 16,3 C 15,6 C 15,6 C 95 % 1024,9 hPa 0,0 l/m 0 min 0 min 0 W/m 3,2 km/h (1 Bft) 97,87 %
12.09.2019 02:50 16,3 C 15,6 C 15,6 C 95 % 1025,0 hPa 0,0 l/m 0 min 0 min 0 W/m 6,4 km/h (2 Bft) 100,00 %
12.09.2019 02:52 16,4 C 15,6 C 15,6 C 95 % 1025,0 hPa 0,0 l/m 0 min 0 min 0 W/m 6,4 km/h (2 Bft) 100,00 %
12.09.2019 02:54 16,4 C 15,6 C 15,6 C 95 % 1024,9 hPa 0,0 l/m 0 min 0 min 0 W/m 3,2 km/h (1 Bft) 97,87 %
12.09.2019 02:56 16,4 C 15,6 C 15,6 C 96 % 1025,0 hPa 0,0 l/m 0 min 0 min 0 W/m 3,2 km/h (1 Bft) 97,87 %
12.09.2019 02:58 16,4 C 15,6 C 15,6 C 96 % 1025,0 hPa 0,0 l/m 0 min 0 min 0 W/m 9,7 km/h (2 Bft) 97,87 %
12.09.2019 03:00 16,4 C 15,6 C 15,6 C 96 % 1025,0 hPa 0,0 l/m 0 min 0 min 0 W/m 9,7 km/h (2 Bft) 97,87 %
12.09.2019 03:02 16,5 C 16,1 C 15,6 C 96 % 1025,0 hPa 0,0 l/m 0 min 0 min 0 W/m 3,2 km/h (1 Bft) 97,83 %
12.09.2019 03:04 16,5 C 16,1 C 15,6 C 96 % 1025,0 hPa 0,0 l/m 0 min 0 min 0 W/m 9,7 km/h (2 Bft) 97,87 %
12.09.2019 03:06 16,5 C 16,1 C 15,6 C 96 % 1024,9 hPa 0,0 l/m 0 min 0 min 0 W/m 9,7 km/h (2 Bft) 95,74 %
12.09.2019 03:08 16,5 C 16,1 C 15,6 C 96 % 1025,0 hPa 0,0 l/m 0 min 0 min 0 W/m 3,2 km/h (1 Bft) 97,87 %
12.09.2019 03:10 16,6 C 16,1 C 15,6 C 96 % 1025,0 hPa 0,0 l/m 0 min 0 min 0 W/m 9,7 km/h (2 Bft) 97,87 %
12.09.2019 03:12 16,6 C 16,1 C 15,6 C 96 % 1024,9 hPa 0,0 l/m 0 min 0 min 0 W/m 9,7 km/h (2 Bft) 97,87 %
12.09.2019 03:14 16,6 C 16,1 C 15,6 C 96 % 1024,9 hPa 0,0 l/m 0 min 0 min 0 W/m 9,7 km/h (2 Bft) 97,83 %
12.09.2019 03:16 16,6 C 16,1 C 15,6 C 96 % 1024,8 hPa 0,0 l/m 0 min 0 min 0 W/m 9,7 km/h (2 Bft) 95,74 %
12.09.2019 03:18 16,6 C 15,6 C 15,6 C 96 % 1024,9 hPa 0,0 l/m 0 min 0 min 0 W/m 6,4 km/h (2 Bft) 97,87 %
12.09.2019 03:20 16,6 C 15,6 C 15,6 C 96 % 1024,9 hPa 0,0 l/m 0 min 0 min 0 W/m 12,9 km/h (3 Bft) 97,87 %
12.09.2019 03:22 16,6 C 15,6 C 15,6 C 96 % 1025,0 hPa 0,0 l/m 0 min 0 min 0 W/m 6,4 km/h (2 Bft) 93,62 %
12.09.2019 03:24 16,6 C 15,6 C 15,6 C 96 % 1025,0 hPa 0,0 l/m 0 min 0 min 0 W/m 3,2 km/h (1 Bft) 97,87 %
12.09.2019 03:26 16,6 C 15,6 C 15,6 C 96 % 1025,0 hPa 0,0 l/m 0 min 0 min 0 W/m 3,2 km/h (1 Bft) 91,30 %
12.09.2019 03:28 16,6 C 15,6 C 15,6 C 96 % 1025,0 hPa 0,0 l/m 0 min 0 min 0 W/m 6,4 km/h (2 Bft) 93,62 %
12.09.2019 03:30 16,6 C 15,6 C 15,6 C 96 % 1025,1 hPa 0,0 l/m 0 min 0 min 0 W/m 9,7 km/h (2 Bft) 95,74 %
12.09.2019 03:32 16,6 C 15,6 C 15,6 C 96 % 1025,1 hPa 0,0 l/m 0 min 0 min 0 W/m 6,4 km/h (2 Bft) 91,49 %
12.09.2019 03:34 16,6 C 16,1 C 15,6 C 96 % 1025,1 hPa 0,0 l/m 0 min 0 min 0 W/m 12,9 km/h (3 Bft) 93,62 %
12.09.2019 03:36 16,6 C 16,1 C 15,6 C 96 % 1025,1 hPa 0,0 l/m 0 min 0 min 0 W/m 3,2 km/h (1 Bft) 93,62 %
12.09.2019 03:38 16,6 C 16,1 C 15,6 C 96 % 1025,1 hPa 0,0 l/m 0 min 0 min 0 W/m 3,2 km/h (1 Bft) 91,30 %
12.09.2019 03:40 16,6 C 15,6 C 15,6 C 96 % 1025,1 hPa 0,0 l/m 0 min 0 min 0 W/m 3,2 km/h (1 Bft) 93,62 %
12.09.2019 03:42 16,6 C 16,1 C 15,6 C 96 % 1025,1 hPa 0,0 l/m 0 min 0 min 0 W/m 3,2 km/h (1 Bft) 93,62 %
12.09.2019 03:44 16,6 C 15,6 C 15,6 C 96 % 1025,1 hPa 0,0 l/m 0 min 0 min 0 W/m 3,2 km/h (1 Bft) 91,49 %
12.09.2019 03:46 16,6 C 16,1 C 15,6 C 96 % 1025,1 hPa 0,0 l/m 0 min 0 min 0 W/m 6,4 km/h (2 Bft) 91,49 %
12.09.2019 03:48 16,6 C 16,1 C 15,6 C 96 % 1025,0 hPa 0,0 l/m 0 min 0 min 0 W/m 6,4 km/h (2 Bft) 91,49 %
12.09.2019 03:50 16,6 C 16,1 C 15,6 C 96 % 1025,1 hPa 0,0 l/m 0 min 0 min 0 W/m 3,2 km/h (1 Bft) 97,83 %
12.09.2019 03:52 16,6 C 16,1 C 15,6 C 96 % 1025,1 hPa 0,0 l/m 0 min 0 min 0 W/m 0,0 km/h (0 Bft) 91,49 %
12.09.2019 03:54 16,6 C 16,1 C 15,6 C 96 % 1025,2 hPa 0,0 l/m 0 min 0 min 0 W/m 6,4 km/h (2 Bft) 95,74 %
12.09.2019 03:56 16,6 C 16,1 C 15,6 C 96 % 1025,1 hPa 0,0 l/m 0 min 0 min 0 W/m 6,4 km/h (2 Bft) 95,74 %
12.09.2019 03:58 16,6 C 16,1 C 15,6 C 96 % 1025,1 hPa 0,0 l/m 0 min 0 min 0 W/m 6,4 km/h (2 Bft) 91,49 %
12.09.2019 04:00 16,7 C 16,1 C 15,6 C 96 % 1025,1 hPa 0,0 l/m 0 min 0 min 0 W/m 9,7 km/h (2 Bft) 95,74 %
12.09.2019 04:02 16,7 C 15,6 C 15,6 C 96 % 1025,1 hPa 0,0 l/m 0 min 0 min 0 W/m 6,4 km/h (2 Bft) 95,65 %
12.09.2019 04:04 16,7 C 16,1 C 15,6 C 96 % 1025,2 hPa 0,0 l/m 0 min 0 min 0 W/m 9,7 km/h (2 Bft) 93,48 %
12.09.2019 04:06 16,6 C 16,1 C 15,6 C 96 % 1025,2 hPa 0,0 l/m 0 min 0 min 0 W/m 6,4 km/h (2 Bft) 95,74 %
12.09.2019 04:08 16,7 C 16,1 C 15,6 C 96 % 1025,2 hPa 0,0 l/m 0 min 0 min 0 W/m 6,4 km/h (2 Bft) 93,62 %
12.09.2019 04:10 16,6 C 16,1 C 15,6 C 96 % 1025,2 hPa 0,0 l/m 0 min 0 min 0 W/m 6,4 km/h (2 Bft) 95,74 %
12.09.2019 04:12 16,7 C 16,1 C 15,6 C 96 % 1025,2 hPa 0,0 l/m 0 min 0 min 0 W/m 12,9 km/h (3 Bft) 97,87 %
12.09.2019 04:14 16,7 C 16,1 C 15,6 C 96 % 1025,2 hPa 0,0 l/m 0 min 0 min 0 W/m 9,7 km/h (2 Bft) 95,74 %
12.09.2019 04:16 16,7 C 16,1 C 15,6 C 96 % 1025,2 hPa 0,0 l/m 0 min 0 min 0 W/m 6,4 km/h (2 Bft) 97,83 %
12.09.2019 04:18 16,7 C 16,1 C 15,6 C 96 % 1025,2 hPa 0,0 l/m 0 min 0 min 0 W/m 9,7 km/h (2 Bft) 100,00 %
12.09.2019 04:20 16,7 C 16,1 C 15,6 C 96 % 1025,2 hPa 0,0 l/m 0 min 0 min 0 W/m 6,4 km/h (2 Bft) 100,00 %
12.09.2019 04:22 16,7 C 16,1 C 15,6 C 96 % 1025,2 hPa 0,0 l/m 0 min 0 min 0 W/m 6,4 km/h (2 Bft) 100,00 %
12.09.2019 04:24 16,7 C 16,1 C 15,6 C 96 % 1025,2 hPa 0,0 l/m 0 min 0 min 0 W/m 9,7 km/h (2 Bft) 97,87 %
12.09.2019 04:26 16,7 C 16,1 C 15,6 C 96 % 1025,1 hPa 0,0 l/m 0 min 0 min 0 W/m 3,2 km/h (1 Bft) 100,00 %
12.09.2019 04:28 16,7 C 16,1 C 15,6 C 96 % 1025,1 hPa 0,0 l/m 0 min 0 min 0 W/m 3,2 km/h (1 Bft) 100,00 %
12.09.2019 04:30 16,7 C 16,1 C 15,6 C 96 % 1025,1 hPa 0,0 l/m 0 min 0 min 0 W/m 6,4 km/h (2 Bft) 100,00 %
12.09.2019 04:32 16,7 C 16,1 C 15,6 C 96 % 1025,1 hPa 0,0 l/m 0 min 0 min 0 W/m 3,2 km/h (1 Bft) 100,00 %
12.09.2019 04:34 16,7 C 16,1 C 15,6 C 96 % 1025,2 hPa 0,0 l/m 0 min 0 min 0 W/m 6,4 km/h (2 Bft) 100,00 %
12.09.2019 04:36 16,7 C 16,1 C 15,6 C 96 % 1025,1 hPa 0,0 l/m 0 min 0 min 0 W/m 3,2 km/h (1 Bft) 100,00 %
12.09.2019 04:38 16,7 C 16,1 C 15,6 C 96 % 1025,1 hPa 0,0 l/m 0 min 0 min 0 W/m 9,7 km/h (2 Bft) 100,00 %
12.09.2019 04:40 16,7 C 16,1 C 15,6 C 96 % 1025,2 hPa 0,0 l/m 0 min 0 min 0 W/m 6,4 km/h (2 Bft) 100,00 %
12.09.2019 04:42 16,7 C 16,1 C 15,6 C 96 % 1025,2 hPa 0,0 l/m 0 min 0 min 0 W/m 9,7 km/h (2 Bft) 100,00 %
12.09.2019 04:44 16,7 C 16,1 C 15,6 C 96 % 1025,2 hPa 0,0 l/m 0 min 0 min 0 W/m 6,4 km/h (2 Bft) 100,00 %
12.09.2019 04:46 16,7 C 16,1 C 15,6 C 96 % 1025,2 hPa 0,0 l/m 0 min 0 min 0 W/m 6,4 km/h (2 Bft) 100,00 %
12.09.2019 04:48 16,7 C 16,1 C 15,6 C 96 % 1025,2 hPa 0,0 l/m 0 min 0 min 0 W/m 12,9 km/h (3 Bft) 100,00 %
12.09.2019 04:50 16,7 C 16,1 C 15,6 C 97 % 1025,2 hPa 0,0 l/m 0 min 0 min 0 W/m 3,2 km/h (1 Bft) 100,00 %
12.09.2019 04:52 16,7 C 16,1 C 15,6 C 96 % 1025,2 hPa 0,0 l/m 0 min 0 min 0 W/m 6,4 km/h (2 Bft) 100,00 %
12.09.2019 04:54 16,7 C 16,1 C 15,6 C 97 % 1025,2 hPa 0,0 l/m 0 min 0 min 0 W/m 9,7 km/h (2 Bft) 100,00 %
12.09.2019 04:56 16,7 C 16,1 C 15,6 C 97 % 1025,2 hPa 0,0 l/m 0 min 0 min 0 W/m 16,1 km/h (3 Bft) 100,00 %
12.09.2019 04:58 16,7 C 16,1 C 15,6 C 97 % 1025,2 hPa 0,0 l/m 0 min 0 min 0 W/m 3,2 km/h (1 Bft) 100,00 %
12.09.2019 05:00 16,7 C 16,1 C 15,6 C 97 % 1025,2 hPa 0,0 l/m 0 min 0 min 0 W/m 3,2 km/h (1 Bft) 100,00 %
12.09.2019 05:02 16,7 C 16,1 C 15,6 C 97 % 1025,1 hPa 0,0 l/m 0 min 0 min 0 W/m 9,7 km/h (2 Bft) 93,62 %
12.09.2019 05:04 16,7 C 16,1 C 15,6 C 97 % 1025,2 hPa 0,0 l/m 0 min 0 min 0 W/m 12,9 km/h (3 Bft) 97,83 %
12.09.2019 05:06 16,7 C 16,1 C 15,6 C 97 % 1025,1 hPa 0,0 l/m 0 min 0 min 0 W/m 9,7 km/h (2 Bft) 100,00 %
12.09.2019 05:08 16,7 C 16,1 C 15,6 C 97 % 1025,1 hPa 0,0 l/m 0 min 0 min 0 W/m 6,4 km/h (2 Bft) 97,87 %
12.09.2019 05:10 16,7 C 16,1 C 15,6 C 97 % 1025,1 hPa 0,0 l/m 0 min 0 min 0 W/m 9,7 km/h (2 Bft) 100,00 %
12.09.2019 05:12 16,7 C 16,1 C 15,6 C 97 % 1025,1 hPa 0,0 l/m 0 min 0 min 0 W/m 12,9 km/h (3 Bft) 100,00 %
12.09.2019 05:14 16,7 C 16,1 C 15,6 C 97 % 1025,1 hPa 0,0 l/m 0 min 0 min 0 W/m 6,4 km/h (2 Bft) 100,00 %
12.09.2019 05:16 16,7 C 16,1 C 15,6 C 97 % 1025,1 hPa 0,0 l/m 0 min 0 min 0 W/m 16,1 km/h (3 Bft) 100,00 %
12.09.2019 05:18 16,7 C 16,1 C 15,6 C 97 % 1025,1 hPa 0,0 l/m 0 min 0 min 0 W/m 12,9 km/h (3 Bft) 100,00 %
12.09.2019 05:20 16,7 C 16,1 C 15,6 C 97 % 1025,1 hPa 0,0 l/m 0 min 0 min 0 W/m 9,7 km/h (2 Bft) 100,00 %
12.09.2019 05:22 16,7 C 16,1 C 15,6 C 97 % 1025,2 hPa 0,0 l/m 0 min 0 min 0 W/m 12,9 km/h (3 Bft) 100,00 %
12.09.2019 05:24 16,7 C 16,1 C 15,6 C 97 % 1025,2 hPa 0,0 l/m 0 min 0 min 0 W/m 12,9 km/h (3 Bft) 100,00 %
12.09.2019 05:26 16,7 C 16,1 C 15,6 C 97 % 1025,2 hPa 0,0 l/m 0 min 0 min 0 W/m 12,9 km/h (3 Bft) 100,00 %
12.09.2019 05:28 16,7 C 16,1 C 15,6 C 97 % 1025,3 hPa 0,0 l/m 0 min 0 min 0 W/m 9,7 km/h (2 Bft) 100,00 %
12.09.2019 05:30 16,7 C 16,1 C 15,6 C 97 % 1025,3 hPa 0,0 l/m 0 min 0 min 0 W/m 9,7 km/h (2 Bft) 100,00 %
12.09.2019 05:32 16,7 C 16,1 C 15,6 C 97 % 1025,3 hPa 0,0 l/m 0 min 0 min 0 W/m 12,9 km/h (3 Bft) 100,00 %
12.09.2019 05:34 16,7 C 16,1 C 15,6 C 97 % 1025,3 hPa 0,0 l/m 0 min 0 min 0 W/m 12,9 km/h (3 Bft) 100,00 %
12.09.2019 05:36 16,7 C 16,1 C 15,6 C 97 % 1025,3 hPa 0,0 l/m 0 min 0 min 0 W/m 9,7 km/h (2 Bft) 100,00 %
12.09.2019 05:38 16,7 C 16,1 C 15,6 C 97 % 1025,3 hPa 0,0 l/m 0 min 0 min 0 W/m 12,9 km/h (3 Bft) 100,00 %
12.09.2019 05:40 16,7 C 16,1 C 15,6 C 97 % 1025,3 hPa 0,0 l/m 0 min 0 min 0 W/m 9,7 km/h (2 Bft) 100,00 %
12.09.2019 05:42 16,7 C 16,1 C 15,6 C 97 % 1025,3 hPa 0,0 l/m 0 min 0 min 0 W/m 6,4 km/h (2 Bft) 100,00 %
12.09.2019 05:44 16,7 C 16,1 C 15,6 C 97 % 1025,4 hPa 0,0 l/m 0 min 0 min 0 W/m 3,2 km/h (1 Bft) 100,00 %
12.09.2019 05:46 16,7 C 16,1 C 15,6 C 97 % 1025,4 hPa 0,0 l/m 0 min 0 min 0 W/m 9,7 km/h (2 Bft) 100,00 %
12.09.2019 05:48 16,7 C 16,1 C 15,6 C 97 % 1025,5 hPa 0,0 l/m 0 min 0 min 0 W/m 3,2 km/h (1 Bft) 97,87 %
12.09.2019 05:50 16,7 C 16,1 C 15,6 C 97 % 1025,5 hPa 0,0 l/m 0 min 0 min 0 W/m 6,4 km/h (2 Bft) 100,00 %
12.09.2019 05:52 16,7 C 16,1 C 15,6 C 97 % 1025,6 hPa 0,0 l/m 0 min 0 min 0 W/m 6,4 km/h (2 Bft) 97,87 %
12.09.2019 05:54 16,7 C 16,1 C 15,6 C 97 % 1025,6 hPa 0,0 l/m 0 min 0 min 0 W/m 6,4 km/h (2 Bft) 97,87 %
12.09.2019 05:56 16,7 C 16,1 C 15,6 C 97 % 1025,6 hPa 0,0 l/m 0 min 0 min 0 W/m 6,4 km/h (2 Bft) 100,00 %
12.09.2019 05:58 16,7 C 16,1 C 15,6 C 97 % 1025,6 hPa 0,0 l/m 0 min 0 min 0 W/m 6,4 km/h (2 Bft) 100,00 %
12.09.2019 06:00 16,7 C 16,1 C 15,6 C 97 % 1025,5 hPa 0,0 l/m 0 min 0 min 0 W/m 3,2 km/h (1 Bft) 97,87 %
12.09.2019 06:02 16,7 C 16,1 C 15,6 C 97 % 1025,5 hPa 0,0 l/m 0 min 0 min 0 W/m 6,4 km/h (2 Bft) 95,65 %
12.09.2019 06:04 16,7 C 16,1 C 15,6 C 97 % 1025,6 hPa 0,0 l/m 0 min 0 min 0 W/m 6,4 km/h (2 Bft) 93,62 %
12.09.2019 06:08 16,7 C 16,1 C 15,6 C 97 % 1025,6 hPa 0,0 l/m 0 min 0 min 0 W/m 9,7 km/h (2 Bft) 96,81 %
12.09.2019 06:10 16,7 C 16,1 C 15,6 C 97 % 1025,6 hPa 0,0 l/m 0 min 0 min 0 W/m 9,7 km/h (2 Bft) 95,74 %
12.09.2019 06:12 16,7 C 16,1 C 15,6 C 97 % 1025,7 hPa 0,0 l/m 0 min 0 min 0 W/m 6,4 km/h (2 Bft) 89,36 %
12.09.2019 06:14 16,7 C 16,1 C 15,6 C 97 % 1025,6 hPa 0,0 l/m 0 min 0 min 0 W/m 12,9 km/h (3 Bft) 97,83 %
12.09.2019 06:16 16,7 C 16,1 C 15,6 C 97 % 1025,6 hPa 0,0 l/m 0 min 0 min 0 W/m 6,4 km/h (2 Bft) 93,62 %
12.09.2019 06:18 16,7 C 16,1 C 15,6 C 97 % 1025,6 hPa 0,0 l/m 0 min 0 min 0 W/m 9,7 km/h (2 Bft) 95,74 %
12.09.2019 06:20 16,8 C 16,1 C 15,6 C 97 % 1025,6 hPa 0,0 l/m 0 min 0 min 0 W/m 6,4 km/h (2 Bft) 95,74 %
12.09.2019 06:22 16,8 C 16,1 C 15,6 C 97 % 1025,6 hPa 0,0 l/m 0 min 0 min 0 W/m 9,7 km/h (2 Bft) 95,74 %
12.09.2019 06:24 16,8 C 16,1 C 15,6 C 97 % 1025,6 hPa 0,0 l/m 0 min 0 min 0 W/m 0,0 km/h (0 Bft) 95,74 %
12.09.2019 06:26 16,7 C 16,1 C 15,6 C 97 % 1025,7 hPa 0,0 l/m 0 min 0 min 0 W/m 6,4 km/h (2 Bft) 95,65 %
12.09.2019 06:28 16,8 C 16,1 C 15,6 C 97 % 1025,7 hPa 0,0 l/m 0 min 0 min 0 W/m 3,2 km/h (1 Bft) 95,74 %
12.09.2019 06:30 16,8 C 16,1 C 15,6 C 97 % 1025,8 hPa 0,0 l/m 0 min 0 min 0 W/m 9,7 km/h (2 Bft) 95,74 %
12.09.2019 06:32 16,8 C 16,1 C 15,6 C 97 % 1025,7 hPa 0,0 l/m 0 min 0 min 0 W/m 3,2 km/h (1 Bft) 95,74 %
12.09.2019 06:34 16,8 C 16,1 C 15,6 C 97 % 1025,7 hPa 0,0 l/m 0 min 0 min 0 W/m 3,2 km/h (1 Bft) 95,74 %
12.09.2019 06:36 16,8 C 16,1 C 15,6 C 97 % 1025,7 hPa 0,0 l/m 0 min 0 min 0 W/m 3,2 km/h (1 Bft) 93,62 %
12.09.2019 06:38 16,8 C 16,1 C 16,1 C 97 % 1025,8 hPa 0,0 l/m 0 min 0 min 0 W/m 12,9 km/h (3 Bft) 95,65 %
12.09.2019 06:40 16,8 C 16,1 C 16,1 C 97 % 1025,8 hPa 0,0 l/m 0 min 0 min 0 W/m 9,7 km/h (2 Bft) 93,62 %
12.09.2019 06:42 16,8 C 16,1 C 16,1 C 97 % 1025,8 hPa 0,0 l/m 0 min 0 min 0 W/m 3,2 km/h (1 Bft) 95,74 %
12.09.2019 06:44 16,8 C 16,1 C 16,1 C 97 % 1025,9 hPa 0,0 l/m 0 min 0 min 0 W/m 9,7 km/h (2 Bft) 93,62 %
12.09.2019 06:46 16,8 C 16,1 C 16,1 C 97 % 1025,9 hPa 0,0 l/m 0 min 0 min 0 W/m 9,7 km/h (2 Bft) 89,36 %
12.09.2019 06:48 16,8 C 16,1 C 16,1 C 97 % 1026,0 hPa 0,0 l/m 0 min 0 min 0 W/m 3,2 km/h (1 Bft) 93,62 %
12.09.2019 06:50 16,8 C 16,1 C 16,1 C 97 % 1026,0 hPa 0,0 l/m 0 min 0 min 0 W/m 3,2 km/h (1 Bft) 95,65 %
12.09.2019 06:52 16,8 C 16,1 C 16,1 C 97 % 1026,0 hPa 0,0 l/m 0 min 0 min 0 W/m 6,4 km/h (2 Bft) 95,74 %
12.09.2019 06:54 16,8 C 16,1 C 16,1 C 97 % 1026,0 hPa 0,0 l/m 0 min 0 min 0 W/m 3,2 km/h (1 Bft) 95,74 %
12.09.2019 06:56 16,8 C 16,1 C 16,1 C 97 % 1026,1 hPa 0,0 l/m 0 min 0 min 0 W/m 6,4 km/h (2 Bft) 91,49 %
12.09.2019 06:58 16,8 C 16,1 C 16,1 C 97 % 1026,0 hPa 0,0 l/m 0 min 0 min 0 W/m 3,2 km/h (1 Bft) 95,74 %
12.09.2019 07:00 16,8 C 16,1 C 16,1 C 97 % 1026,0 hPa 0,0 l/m 0 min 0 min 0 W/m 6,4 km/h (2 Bft) 95,65 %
12.09.2019 07:02 16,8 C 16,1 C 16,1 C 97 % 1026,1 hPa 0,0 l/m 0 min 0 min 0 W/m 3,2 km/h (1 Bft) 95,74 %
12.09.2019 07:04 16,8 C 16,1 C 16,1 C 96 % 1026,1 hPa 0,0 l/m 0 min 0 min 0 W/m 0,0 km/h (0 Bft) 97,87 %
12.09.2019 07:06 16,8 C 16,1 C 16,1 C 96 % 1026,0 hPa 0,0 l/m 0 min 0 min 0 W/m 3,2 km/h (1 Bft) 97,87 %
12.09.2019 07:08 16,8 C 16,1 C 16,1 C 96 % 1026,0 hPa 0,0 l/m 0 min 0 min 0 W/m 3,2 km/h (1 Bft) 97,87 %
12.09.2019 07:10 16,8 C 16,1 C 16,1 C 96 % 1026,0 hPa 0,0 l/m 0 min 0 min 0 W/m 9,7 km/h (2 Bft) 97,87 %
12.09.2019 07:12 16,8 C 16,1 C 16,1 C 96 % 1026,0 hPa 0,0 l/m 0 min 0 min 0 W/m 3,2 km/h (1 Bft) 97,83 %
12.09.2019 07:14 16,8 C 16,1 C 16,1 C 96 % 1026,1 hPa 0,0 l/m 0 min 0 min 0 W/m 0,0 km/h (0 Bft) 97,87 %
12.09.2019 07:16 16,8 C 16,1 C 16,1 C 96 % 1026,2 hPa 0,0 l/m 0 min 0 min 0 W/m 3,2 km/h (1 Bft) 95,74 %
12.09.2019 07:18 16,9 C 16,1 C 16,1 C 97 % 1026,1 hPa 0,0 l/m 0 min 0 min 0 W/m 3,2 km/h (1 Bft) 95,74 %
12.09.2019 07:20 16,9 C 16,1 C 16,1 C 97 % 1026,1 hPa 0,0 l/m 0 min 0 min 0 W/m 6,4 km/h (2 Bft) 97,87 %
12.09.2019 07:22 16,9 C 16,1 C 16,1 C 97 % 1026,2 hPa 0,0 l/m 0 min 0 min 0 W/m 3,2 km/h (1 Bft) 95,74 %
12.09.2019 07:24 16,9 C 16,1 C 16,1 C 97 % 1026,2 hPa 0,0 l/m 0 min 0 min 0 W/m 0,0 km/h (0 Bft) 95,65 %
12.09.2019 07:26 16,9 C 16,1 C 16,1 C 97 % 1026,3 hPa 0,0 l/m 0 min 0 min 0 W/m 3,2 km/h (1 Bft) 97,87 %
12.09.2019 07:28 16,9 C 16,1 C 16,1 C 97 % 1026,2 hPa 0,0 l/m 0 min 0 min 0 W/m 3,2 km/h (1 Bft) 97,87 %
12.09.2019 07:30 16,9 C 16,1 C 16,1 C 96 % 1026,3 hPa 0,0 l/m 0 min 0 min 0 W/m 9,7 km/h (2 Bft) 97,87 %
12.09.2019 07:32 16,9 C 16,1 C 16,1 C 96 % 1026,3 hPa 0,0 l/m 0 min 0 min 3 W/m 3,2 km/h (1 Bft) 95,74 %
12.09.2019 07:34 16,9 C 16,1 C 16,1 C 96 % 1026,3 hPa 0,0 l/m 0 min 0 min 5 W/m 0,0 km/h (0 Bft) 97,87 %
12.09.2019 07:36 16,9 C 16,1 C 16,1 C 96 % 1026,3 hPa 0,0 l/m 0 min 0 min 5 W/m 6,4 km/h (2 Bft) 95,65 %
12.09.2019 07:38 16,9 C 16,1 C 16,1 C 96 % 1026,3 hPa 0,0 l/m 0 min 0 min 7 W/m 0,0 km/h (0 Bft) 100,00 %
12.09.2019 07:40 16,9 C 16,7 C 16,1 C 96 % 1026,3 hPa 0,0 l/m 0 min 0 min 7 W/m 3,2 km/h (1 Bft) 97,87 %
12.09.2019 07:42 16,9 C 16,7 C 16,1 C 96 % 1026,3 hPa 0,0 l/m 0 min 0 min 9 W/m 3,2 km/h (1 Bft) 100,00 %
12.09.2019 07:44 16,9 C 16,7 C 16,1 C 96 % 1026,2 hPa 0,0 l/m 0 min 0 min 9 W/m 3,2 km/h (1 Bft) 100,00 %
12.09.2019 07:46 16,9 C 16,7 C 16,1 C 96 % 1026,3 hPa 0,0 l/m 0 min 0 min 12 W/m 3,2 km/h (1 Bft) 100,00 %
12.09.2019 07:48 16,9 C 16,7 C 16,1 C 96 % 1026,4 hPa 0,0 l/m 0 min 0 min 13 W/m 3,2 km/h (1 Bft) 100,00 %
12.09.2019 07:50 16,9 C 16,7 C 16,1 C 96 % 1026,3 hPa 0,0 l/m 0 min 0 min 14 W/m 0,0 km/h (0 Bft) 95,74 %
12.09.2019 07:52 16,9 C 16,7 C 16,1 C 96 % 1026,4 hPa 0,0 l/m 0 min 0 min 14 W/m 0,0 km/h (0 Bft) 100,00 %
12.09.2019 07:54 16,9 C 16,7 C 16,1 C 96 % 1026,4 hPa 0,0 l/m 0 min 0 min 16 W/m 3,2 km/h (1 Bft) 100,00 %
12.09.2019 07:56 16,9 C 16,7 C 16,1 C 96 % 1026,5 hPa 0,0 l/m 0 min 0 min 23 W/m 0,0 km/h (0 Bft) 95,74 %
12.09.2019 07:58 16,9 C 16,7 C 16,1 C 96 % 1026,4 hPa 0,0 l/m 0 min 0 min 30 W/m 0,0 km/h (0 Bft) 100,00 %
12.09.2019 08:00 16,9 C 16,7 C 16,1 C 96 % 1026,5 hPa 0,0 l/m 0 min 0 min 31 W/m 0,0 km/h (0 Bft) 100,00 %
12.09.2019 08:02 17,0 C 16,7 C 16,1 C 96 % 1026,5 hPa 0,0 l/m 0 min 0 min 39 W/m 0,0 km/h (0 Bft) 100,00 %
12.09.2019 08:04 17,0 C 16,7 C 16,1 C 96 % 1026,5 hPa 0,0 l/m 0 min 0 min 46 W/m 9,7 km/h (2 Bft) 100,00 %
12.09.2019 08:06 17,0 C 16,7 C 16,7 C 96 % 1026,6 hPa 0,0 l/m 0 min 0 min 49 W/m 6,4 km/h (2 Bft) 100,00 %
12.09.2019 08:08 17,0 C 16,7 C 16,7 C 96 % 1026,5 hPa 0,0 l/m 0 min 0 min 39 W/m 6,4 km/h (2 Bft) 100,00 %
12.09.2019 08:10 17,1 C 16,7 C 16,7 C 96 % 1026,6 hPa 0,0 l/m 0 min 0 min 36 W/m 0,0 km/h (0 Bft) 100,00 %
12.09.2019 08:12 17,1 C 16,7 C 16,7 C 96 % 1026,6 hPa 0,0 l/m 0 min 0 min 35 W/m 6,4 km/h (2 Bft) 100,00 %
12.09.2019 08:14 17,1 C 16,7 C 16,7 C 96 % 1026,7 hPa 0,0 l/m 0 min 0 min 34 W/m 6,4 km/h (2 Bft) 100,00 %
12.09.2019 08:16 17,1 C 16,7 C 16,7 C 96 % 1026,7 hPa 0,0 l/m 0 min 0 min 35 W/m 0,0 km/h (0 Bft) 100,00 %
12.09.2019 08:18 17,1 C 16,7 C 16,7 C 96 % 1026,7 hPa 0,0 l/m 0 min 0 min 34 W/m 9,7 km/h (2 Bft) 100,00 %
12.09.2019 08:20 17,1 C 16,7 C 16,7 C 96 % 1026,7 hPa 0,0 l/m 0 min 0 min 38 W/m 6,4 km/h (2 Bft) 100,00 %
12.09.2019 08:22 17,1 C 17,2 C 16,7 C 96 % 1026,7 hPa 0,0 l/m 0 min 0 min 44 W/m 6,4 km/h (2 Bft) 100,00 %
12.09.2019 08:24 17,2 C 17,2 C 16,7 C 96 % 1026,7 hPa 0,0 l/m 0 min 0 min 38 W/m 3,2 km/h (1 Bft) 100,00 %
12.09.2019 08:26 17,2 C 17,2 C 16,7 C 96 % 1026,8 hPa 0,0 l/m 0 min 0 min 40 W/m 3,2 km/h (1 Bft) 97,87 %
12.09.2019 08:28 17,2 C 17,2 C 16,7 C 96 % 1026,8 hPa 0,0 l/m 0 min 0 min 42 W/m 6,4 km/h (2 Bft) 100,00 %
12.09.2019 08:30 17,2 C 17,2 C 16,7 C 96 % 1026,8 hPa 0,0 l/m 0 min 0 min 44 W/m 3,2 km/h (1 Bft) 97,87 %
12.09.2019 08:32 17,2 C 17,2 C 16,7 C 96 % 1026,7 hPa 0,0 l/m 0 min 0 min 50 W/m 9,7 km/h (2 Bft) 97,87 %
12.09.2019 08:34 17,2 C 17,2 C 16,7 C 96 % 1026,8 hPa 0,0 l/m 0 min 0 min 53 W/m 0,0 km/h (0 Bft) 100,00 %
12.09.2019 08:36 17,2 C 17,2 C 16,7 C 96 % 1026,7 hPa 0,0 l/m 0 min 0 min 51 W/m 3,2 km/h (1 Bft) 97,87 %
12.09.2019 08:38 17,3 C 17,2 C 16,7 C 96 % 1026,8 hPa 0,0 l/m 0 min 0 min 58 W/m 9,7 km/h (2 Bft) 97,87 %
12.09.2019 08:40 17,3 C 17,2 C 16,7 C 96 % 1026,8 hPa 0,0 l/m 0 min 0 min 55 W/m 12,9 km/h (3 Bft) 97,87 %
12.09.2019 08:42 17,3 C 17,2 C 16,7 C 96 % 1026,7 hPa 0,0 l/m 0 min 0 min 51 W/m 12,9 km/h (3 Bft) 97,87 %
12.09.2019 08:44 17,3 C 17,2 C 16,7 C 96 % 1026,8 hPa 0,0 l/m 0 min 0 min 42 W/m 6,4 km/h (2 Bft) 97,87 %
12.09.2019 08:46 17,3 C 17,2 C 16,7 C 96 % 1026,8 hPa 0,0 l/m 0 min 0 min 35 W/m 9,7 km/h (2 Bft) 97,83 %
12.09.2019 08:48 17,3 C 17,2 C 16,7 C 96 % 1026,8 hPa 0,0 l/m 0 min 0 min 41 W/m 6,4 km/h (2 Bft) 95,74 %
12.09.2019 08:50 17,3 C 17,2 C 16,7 C 96 % 1026,8 hPa 0,0 l/m 0 min 0 min 55 W/m 3,2 km/h (1 Bft) 97,87 %
12.09.2019 08:52 17,3 C 17,2 C 16,7 C 96 % 1026,9 hPa 0,0 l/m 0 min 0 min 85 W/m 6,4 km/h (2 Bft) 97,87 %
12.09.2019 08:54 17,3 C 17,2 C 16,7 C 96 % 1027,1 hPa 0,0 l/m 0 min 0 min 96 W/m 12,9 km/h (3 Bft) 97,87 %
12.09.2019 08:56 17,4 C 17,8 C 16,7 C 96 % 1027,0 hPa 0,0 l/m 0 min 0 min 82 W/m 9,7 km/h (2 Bft) 97,83 %
12.09.2019 08:58 17,4 C 17,8 C 16,7 C 96 % 1027,1 hPa 0,0 l/m 0 min 0 min 89 W/m 9,7 km/h (2 Bft) 97,87 %
12.09.2019 09:00 17,4 C 17,8 C 17,2 C 96 % 1027,1 hPa 0,0 l/m 0 min 0 min 99 W/m 9,7 km/h (2 Bft) 97,87 %
12.09.2019 09:02 17,4 C 17,8 C 17,2 C 96 % 1027,1 hPa 0,0 l/m 0 min 0 min 109 W/m 9,7 km/h (2 Bft) 97,87 %
12.09.2019 09:04 17,4 C 17,8 C 17,2 C 96 % 1027,2 hPa 0,0 l/m 0 min 0 min 125 W/m 19,3 km/h (3 Bft) 95,74 %
12.09.2019 09:06 17,5 C 17,8 C 17,2 C 96 % 1027,2 hPa 0,0 l/m 0 min 0 min 111 W/m 9,7 km/h (2 Bft) 96,15 %
12.09.2019 09:08 17,5 C 17,8 C 17,2 C 96 % 1027,3 hPa 0,0 l/m 0 min 0 min 111 W/m 12,9 km/h (3 Bft) 92,68 %
12.09.2019 09:10 17,6 C 17,8 C 17,2 C 96 % 1027,3 hPa 0,0 l/m 0 min 0 min 101 W/m 12,9 km/h (3 Bft) 97,87 %
12.09.2019 09:12 17,6 C 17,8 C 17,2 C 96 % 1027,3 hPa 0,0 l/m 0 min 0 min 98 W/m 3,2 km/h (1 Bft) 97,87 %
12.09.2019 09:14 17,6 C 17,8 C 17,2 C 96 % 1027,4 hPa 0,0 l/m 0 min 0 min 76 W/m 6,4 km/h (2 Bft) 95,74 %
12.09.2019 09:16 17,6 C 17,8 C 17,2 C 96 % 1027,5 hPa 0,0 l/m 0 min 0 min 61 W/m 3,2 km/h (1 Bft) 95,74 %
12.09.2019 09:18 17,7 C 17,8 C 17,2 C 96 % 1027,6 hPa 0,0 l/m 0 min 0 min 62 W/m 9,7 km/h (2 Bft) 97,87 %
12.09.2019 09:20 17,7 C 17,8 C 17,2 C 96 % 1027,7 hPa 0,0 l/m 0 min 0 min 75 W/m 3,2 km/h (1 Bft) 97,83 %
12.09.2019 09:22 17,7 C 17,8 C 17,2 C 96 % 1027,8 hPa 0,0 l/m 0 min 0 min 79 W/m 3,2 km/h (1 Bft) 100,00 %
12.09.2019 09:24 17,7 C 18,3 C 17,2 C 95 % 1027,9 hPa 0,0 l/m 0 min 0 min 95 W/m 3,2 km/h (1 Bft) 100,00 %
12.09.2019 09:26 17,8 C 18,3 C 17,2 C 95 % 1028,1 hPa 0,0 l/m 0 min 0 min 90 W/m 6,4 km/h (2 Bft) 95,74 %
12.09.2019 09:28 17,8 C 18,3 C 17,2 C 95 % 1028,3 hPa 0,0 l/m 0 min 0 min 94 W/m 6,4 km/h (2 Bft) 95,74 %
12.09.2019 09:30 17,8 C 18,3 C 17,2 C 95 % 1028,4 hPa 0,0 l/m 0 min 0 min 90 W/m 6,4 km/h (2 Bft) 95,74 %
12.09.2019 09:32 17,8 C 18,3 C 17,2 C 95 % 1028,5 hPa 0,0 l/m 0 min 0 min 82 W/m 3,2 km/h (1 Bft) 97,83 %
12.09.2019 09:34 17,9 C 18,3 C 17,2 C 95 % 1028,6 hPa 0,0 l/m 0 min 0 min 79 W/m 6,4 km/h (2 Bft) 97,87 %
12.09.2019 09:36 17,9 C 18,3 C 17,2 C 95 % 1028,7 hPa 0,0 l/m 0 min 0 min 83 W/m 9,7 km/h (2 Bft) 95,74 %
12.09.2019 09:38 17,9 C 18,3 C 17,2 C 95 % 1028,8 hPa 0,0 l/m 0 min 0 min 81 W/m 16,1 km/h (3 Bft) 97,87 %
12.09.2019 09:40 17,9 C 18,3 C 17,2 C 95 % 1028,9 hPa 0,0 l/m 0 min 0 min 94 W/m 16,1 km/h (3 Bft) 97,87 %
12.09.2019 09:42 17,9 C 18,3 C 17,8 C 95 % 1029,0 hPa 0,0 l/m 0 min 0 min 98 W/m 6,4 km/h (2 Bft) 98,08 %
12.09.2019 09:44 18,0 C 18,3 C 17,8 C 95 % 1029,1 hPa 0,0 l/m 0 min 0 min 122 W/m 6,4 km/h (2 Bft) 97,73 %
12.09.2019 09:46 18,0 C 18,3 C 17,8 C 95 % 1029,1 hPa 0,0 l/m 0 min 0 min 105 W/m 6,4 km/h (2 Bft) 97,87 %
12.09.2019 09:48 18,1 C 18,3 C 17,8 C 94 % 1029,2 hPa 0,0 l/m 0 min 0 min 114 W/m 3,2 km/h (1 Bft) 97,87 %
12.09.2019 09:50 18,1 C 18,9 C 17,8 C 94 % 1029,2 hPa 0,0 l/m 0 min 0 min 145 W/m 16,1 km/h (3 Bft) 97,87 %
12.09.2019 09:52 18,1 C 18,9 C 17,8 C 94 % 1029,3 hPa 0,0 l/m 0 min 0 min 121 W/m 6,4 km/h (2 Bft) 97,87 %
12.09.2019 09:54 18,2 C 18,9 C 17,8 C 94 % 1029,3 hPa 0,0 l/m 0 min 0 min 123 W/m 12,9 km/h (3 Bft) 95,65 %
12.09.2019 09:56 18,2 C 18,9 C 17,8 C 94 % 1029,4 hPa 0,0 l/m 0 min 0 min 145 W/m 6,4 km/h (2 Bft) 93,62 %
12.09.2019 09:58 18,3 C 18,9 C 18,3 C 94 % 1029,5 hPa 0,0 l/m 0 min 0 min 151 W/m 3,2 km/h (1 Bft) 95,74 %
12.09.2019 10:00 18,3 C 19,4 C 18,3 C 94 % 1029,5 hPa 0,0 l/m 2 min 0 min 214 W/m 9,7 km/h (2 Bft) 95,74 %
12.09.2019 10:02 18,4 C 20,0 C 18,9 C 94 % 1029,5 hPa 0,0 l/m 2 min 0 min 222 W/m 6,4 km/h (2 Bft) 95,74 %
12.09.2019 10:04 18,4 C 20,0 C 18,9 C 93 % 1029,6 hPa 0,0 l/m 0 min 0 min 206 W/m 9,7 km/h (2 Bft) 95,74 %
12.09.2019 10:06 18,4 C 20,0 C 18,9 C 93 % 1029,6 hPa 0,0 l/m 0 min 0 min 187 W/m 6,4 km/h (2 Bft) 95,65 %
12.09.2019 10:08 18,5 C 20,0 C 18,9 C 93 % 1029,7 hPa 0,0 l/m 0 min 0 min 177 W/m 3,2 km/h (1 Bft) 95,74 %
12.09.2019 10:10 18,6 C 19,4 C 18,9 C 93 % 1029,7 hPa 0,0 l/m 0 min 0 min 151 W/m 6,4 km/h (2 Bft) 95,74 %
12.09.2019 10:12 18,6 C 19,4 C 18,9 C 93 % 1029,7 hPa 0,0 l/m 0 min 0 min 157 W/m 6,4 km/h (2 Bft) 93,62 %
12.09.2019 10:14 18,7 C 19,4 C 18,3 C 93 % 1029,8 hPa 0,0 l/m 0 min 0 min 167 W/m 6,4 km/h (2 Bft) 93,62 %
12.09.2019 10:16 18,7 C 19,4 C 18,9 C 92 % 1029,8 hPa 0,0 l/m 0 min 0 min 184 W/m 12,9 km/h (3 Bft) 95,74 %
12.09.2019 10:18 18,8 C 19,4 C 18,9 C 92 % 1029,8 hPa 0,0 l/m 0 min 0 min 181 W/m 12,9 km/h (3 Bft) 95,65 %
12.09.2019 10:20 18,8 C 19,4 C 18,9 C 92 % 1029,9 hPa 0,0 l/m 0 min 0 min 182 W/m 12,9 km/h (3 Bft) 95,74 %
12.09.2019 10:22 18,8 C 20,0 C 18,9 C 92 % 1030,0 hPa 0,0 l/m 0 min 0 min 203 W/m 12,9 km/h (3 Bft) 95,74 %
12.09.2019 10:24 18,9 C 20,0 C 18,9 C 91 % 1030,0 hPa 0,0 l/m 0 min 0 min 193 W/m 9,7 km/h (2 Bft) 95,74 %
12.09.2019 10:26 18,9 C 20,0 C 18,9 C 91 % 1030,1 hPa 0,0 l/m 0 min 0 min 159 W/m 6,4 km/h (2 Bft) 95,74 %
12.09.2019 10:28 19,0 C 19,4 C 18,9 C 91 % 1030,1 hPa 0,0 l/m 0 min 0 min 145 W/m 9,7 km/h (2 Bft) 97,87 %
12.09.2019 10:30 19,0 C 20,0 C 18,9 C 91 % 1030,2 hPa 0,0 l/m 0 min 0 min 162 W/m 12,9 km/h (3 Bft) 95,65 %
12.09.2019 10:32 19,1 C 20,0 C 18,9 C 91 % 1030,3 hPa 0,0 l/m 0 min 0 min 170 W/m 12,9 km/h (3 Bft) 95,74 %
12.09.2019 10:34 19,1 C 20,0 C 18,9 C 90 % 1030,3 hPa 0,0 l/m 0 min 0 min 195 W/m 16,1 km/h (3 Bft) 95,74 %
12.09.2019 10:36 19,1 C 20,0 C 18,9 C 90 % 1030,3 hPa 0,0 l/m 0 min 0 min 206 W/m 16,1 km/h (3 Bft) 95,74 %
12.09.2019 10:38 19,1 C 20,0 C 19,4 C 90 % 1030,4 hPa 0,0 l/m 0 min 0 min 218 W/m 9,7 km/h (2 Bft) 97,73 %
12.09.2019 10:40 19,2 C 20,6 C 19,4 C 90 % 1030,5 hPa 0,0 l/m 0 min 0 min 215 W/m 6,4 km/h (2 Bft) 97,83 %
12.09.2019 10:42 19,2 C 20,6 C 19,4 C 90 % 1030,6 hPa 0,0 l/m 0 min 0 min 229 W/m 6,4 km/h (2 Bft) 97,87 %
12.09.2019 10:44 19,3 C 20,6 C 19,4 C 89 % 1030,6 hPa 0,0 l/m 0 min 0 min 235 W/m 6,4 km/h (2 Bft) 95,74 %
12.09.2019 10:46 19,3 C 20,6 C 19,4 C 89 % 1030,6 hPa 0,0 l/m 0 min 0 min 248 W/m 6,4 km/h (2 Bft) 97,87 %
12.09.2019 10:48 19,4 C 21,1 C 20,0 C 89 % 1030,7 hPa 0,0 l/m 2 min 0 min 294 W/m 6,4 km/h (2 Bft) 97,87 %
12.09.2019 10:50 19,4 C 21,7 C 20,0 C 89 % 1030,7 hPa 0,0 l/m 2 min 0 min 282 W/m 3,2 km/h (1 Bft) 100,00 %
12.09.2019 10:52 19,5 C 21,7 C 20,0 C 89 % 1030,8 hPa 0,0 l/m 2 min 0 min 273 W/m 12,9 km/h (3 Bft) 100,00 %
12.09.2019 10:54 19,6 C 21,7 C 20,6 C 88 % 1030,9 hPa 0,0 l/m 0 min 0 min 248 W/m 22,5 km/h (4 Bft) 100,00 %
12.09.2019 10:56 19,6 C 21,7 C 20,0 C 88 % 1030,9 hPa 0,0 l/m 2 min 0 min 283 W/m 12,9 km/h (3 Bft) 97,87 %
12.09.2019 10:58 19,7 C 21,7 C 20,6 C 87 % 1031,1 hPa 0,0 l/m 2 min 0 min 305 W/m 9,7 km/h (2 Bft) 100,00 %
12.09.2019 11:00 19,8 C 22,8 C 20,6 C 87 % 1031,0 hPa 0,0 l/m 2 min 0 min 327 W/m 9,7 km/h (2 Bft) 100,00 %
12.09.2019 11:02 19,9 C 22,8 C 21,1 C 87 % 1031,1 hPa 0,0 l/m 2 min 0 min 370 W/m 9,7 km/h (2 Bft) 100,00 %
12.09.2019 11:04 20,0 C 23,3 C 21,1 C 87 % 1031,1 hPa 0,0 l/m 2 min 0 min 371 W/m 6,4 km/h (2 Bft) 97,83 %
12.09.2019 11:06 20,1 C 23,9 C 21,1 C 87 % 1031,2 hPa 0,0 l/m 2 min 0 min 382 W/m 16,1 km/h (3 Bft) 95,74 %
12.09.2019 11:08 20,2 C 23,3 C 21,7 C 86 % 1031,2 hPa 0,0 l/m 2 min 0 min 371 W/m 25,7 km/h (4 Bft) 97,87 %
12.09.2019 11:10 20,2 C 22,8 C 21,1 C 85 % 1031,2 hPa 0,0 l/m 2 min 0 min 289 W/m 9,7 km/h (2 Bft) 97,87 %
12.09.2019 11:12 20,3 C 22,2 C 21,1 C 85 % 1031,3 hPa 0,0 l/m 0 min 0 min 240 W/m 9,7 km/h (2 Bft) 97,87 %
12.09.2019 11:14 20,4 C 22,2 C 20,6 C 84 % 1031,3 hPa 0,0 l/m 0 min 0 min 264 W/m 6,4 km/h (2 Bft) 97,87 %
12.09.2019 11:16 20,4 C 22,2 C 20,6 C 83 % 1031,3 hPa 0,0 l/m 2 min 0 min 297 W/m 12,9 km/h (3 Bft) 97,83 %
12.09.2019 11:18 20,4 C 22,8 C 20,6 C 82 % 1031,4 hPa 0,0 l/m 2 min 0 min 327 W/m 6,4 km/h (2 Bft) 97,87 %
12.09.2019 11:20 20,5 C 23,3 C 21,1 C 82 % 1031,4 hPa 0,0 l/m 2 min 0 min 390 W/m 16,1 km/h (3 Bft) 97,87 %
12.09.2019 11:22 20,6 C 23,3 C 21,1 C 82 % 1031,5 hPa 0,0 l/m 2 min 0 min 384 W/m 3,2 km/h (1 Bft) 97,87 %
12.09.2019 11:24 20,7 C 23,3 C 21,7 C 82 % 1031,5 hPa 0,0 l/m 2 min 0 min 305 W/m 3,2 km/h (1 Bft) 95,74 %
12.09.2019 11:26 20,7 C 23,3 C 21,1 C 81 % 1031,7 hPa 0,0 l/m 2 min 0 min 308 W/m 3,2 km/h (1 Bft) 95,65 %
12.09.2019 11:28 20,8 C 22,8 C 21,1 C 81 % 1031,8 hPa 0,0 l/m 2 min 0 min 306 W/m 6,4 km/h (2 Bft) 97,87 %
12.09.2019 11:30 20,9 C 22,8 C 21,1 C 80 % 1031,7 hPa 0,0 l/m 2 min 0 min 311 W/m 6,4 km/h (2 Bft) 97,87 %
12.09.2019 11:32 20,9 C 23,3 C 21,1 C 80 % 1031,8 hPa 0,0 l/m 2 min 0 min 352 W/m 12,9 km/h (3 Bft) 97,87 %
12.09.2019 11:34 21,0 C 23,3 C 21,7 C 79 % 1031,9 hPa 0,0 l/m 2 min 0 min 418 W/m 12,9 km/h (3 Bft) 97,87 %
12.09.2019 11:36 21,1 C 25,0 C 21,7 C 79 % 1031,8 hPa 0,0 l/m 2 min 0 min 469 W/m 9,7 km/h (2 Bft) 95,74 %
12.09.2019 11:38 21,2 C 25,0 C 22,2 C 79 % 1031,8 hPa 0,0 l/m 2 min 0 min 469 W/m 9,7 km/h (2 Bft) 97,96 %
12.09.2019 11:40 21,3 C 25,0 C 22,2 C 80 % 1031,8 hPa 0,0 l/m 2 min 0 min 372 W/m 6,4 km/h (2 Bft) 95,74 %
12.09.2019 11:42 21,3 C 23,3 C 21,7 C 79 % 1032,0 hPa 0,0 l/m 2 min 0 min 352 W/m 16,1 km/h (3 Bft) 97,87 %
12.09.2019 11:44 21,4 C 22,8 C 21,1 C 79 % 1032,0 hPa 0,0 l/m 0 min 0 min 172 W/m 9,7 km/h (2 Bft) 100,00 %
12.09.2019 11:46 21,4 C 22,2 C 21,1 C 78 % 1032,1 hPa 0,0 l/m 0 min 0 min 147 W/m 9,7 km/h (2 Bft) 100,00 %
12.09.2019 11:48 21,4 C 21,7 C 20,6 C 78 % 1032,1 hPa 0,0 l/m 0 min 0 min 170 W/m 3,2 km/h (1 Bft) 97,83 %
12.09.2019 11:50 21,4 C 21,7 C 20,6 C 77 % 1032,2 hPa 0,0 l/m 0 min 0 min 197 W/m 6,4 km/h (2 Bft) 100,00 %
12.09.2019 11:52 21,4 C 22,2 C 20,6 C 77 % 1032,2 hPa 0,0 l/m 0 min 0 min 234 W/m 9,7 km/h (2 Bft) 97,87 %
12.09.2019 11:54 21,3 C 22,2 C 21,1 C 76 % 1032,2 hPa 0,0 l/m 0 min 0 min 276 W/m 6,4 km/h (2 Bft) 100,00 %
12.09.2019 11:56 21,3 C 22,2 C 21,1 C 77 % 1032,3 hPa 0,0 l/m 0 min 0 min 297 W/m 3,2 km/h (1 Bft) 100,00 %
12.09.2019 11:58 21,3 C 22,8 C 21,1 C 77 % 1032,3 hPa 0,0 l/m 0 min 0 min 270 W/m 12,9 km/h (3 Bft) 100,00 %
12.09.2019 12:00 21,3 C 22,2 C 21,1 C 77 % 1032,4 hPa 0,0 l/m 0 min 0 min 253 W/m 19,3 km/h (3 Bft) 100,00 %
12.09.2019 12:02 21,3 C 21,7 C 20,6 C 76 % 1032,5 hPa 0,0 l/m 0 min 0 min 227 W/m 12,9 km/h (3 Bft) 100,00 %
12.09.2019 12:04 21,3 C 21,7 C 20,6 C 76 % 1032,5 hPa 0,0 l/m 0 min 0 min 253 W/m 9,7 km/h (2 Bft) 100,00 %
12.09.2019 12:08 21,2 C 22,8 C 21,1 C 75 % 1032,6 hPa 0,0 l/m 0 min 0 min 250 W/m 9,7 km/h (2 Bft) 100,00 %
12.09.2019 12:10 21,3 C 22,8 C 21,1 C 76 % 1032,5 hPa 0,0 l/m 0 min 0 min 253 W/m 9,7 km/h (2 Bft) 100,00 %
12.09.2019 12:12 21,3 C 22,8 C 21,1 C 76 % 1032,5 hPa 0,0 l/m 2 min 0 min 326 W/m 16,1 km/h (3 Bft) 100,00 %
12.09.2019 12:14 21,3 C 23,9 C 21,7 C 76 % 1032,5 hPa 0,0 l/m 2 min 0 min 348 W/m 9,7 km/h (2 Bft) 100,00 %
12.09.2019 12:16 21,4 C 24,4 C 21,7 C 77 % 1032,5 hPa 0,0 l/m 2 min 0 min 348 W/m 3,2 km/h (1 Bft) 100,00 %
12.09.2019 12:18 21,4 C 23,3 C 21,7 C 76 % 1032,6 hPa 0,0 l/m 0 min 0 min 197 W/m 6,4 km/h (2 Bft) 100,00 %
12.09.2019 12:20 21,4 C 22,8 C 21,1 C 76 % 1032,6 hPa 0,0 l/m 0 min 0 min 184 W/m 9,7 km/h (2 Bft) 100,00 %
12.09.2019 12:22 21,4 C 22,2 C 21,1 C 75 % 1032,6 hPa 0,0 l/m 0 min 0 min 180 W/m 9,7 km/h (2 Bft) 100,00 %
12.09.2019 12:24 21,4 C 21,1 C 20,6 C 75 % 1032,8 hPa 0,0 l/m 0 min 0 min 174 W/m 22,5 km/h (4 Bft) 100,00 %
12.09.2019 12:26 21,3 C 21,1 C 20,6 C 74 % 1032,7 hPa 0,0 l/m 0 min 0 min 178 W/m 9,7 km/h (2 Bft) 100,00 %
12.09.2019 12:28 21,3 C 21,7 C 20,6 C 74 % 1032,8 hPa 0,0 l/m 0 min 0 min 217 W/m 9,7 km/h (2 Bft) 100,00 %
12.09.2019 12:30 21,3 C 22,2 C 20,6 C 75 % 1032,8 hPa 0,0 l/m 0 min 0 min 232 W/m 19,3 km/h (3 Bft) 100,00 %
12.09.2019 12:32 21,2 C 21,7 C 20,6 C 74 % 1032,8 hPa 0,0 l/m 0 min 0 min 233 W/m 12,9 km/h (3 Bft) 97,87 %
12.09.2019 12:34 21,2 C 23,9 C 21,1 C 74 % 1032,8 hPa 0,0 l/m 0 min 0 min 278 W/m 19,3 km/h (3 Bft) 100,00 %
12.09.2019 12:36 21,3 C 26,1 C 21,7 C 73 % 1032,8 hPa 0,0 l/m 2 min 0 min 671 W/m 16,1 km/h (3 Bft) 95,65 %
12.09.2019 12:38 21,4 C 26,1 C 22,2 C 74 % 1032,8 hPa 0,0 l/m 2 min 0 min 672 W/m 16,1 km/h (3 Bft) 100,00 %
12.09.2019 12:40 21,5 C 25,6 C 22,2 C 74 % 1033,0 hPa 0,0 l/m 2 min 0 min 374 W/m 12,9 km/h (3 Bft) 100,00 %
12.09.2019 12:42 21,6 C 25,0 C 21,7 C 72 % 1032,9 hPa 0,0 l/m 2 min 0 min 386 W/m 16,1 km/h (3 Bft) 97,87 %
12.09.2019 12:44 21,7 C 26,1 C 22,2 C 70 % 1032,8 hPa 0,0 l/m 2 min 0 min 808 W/m 19,3 km/h (3 Bft) 97,87 %
12.09.2019 12:46 21,8 C 24,4 C 22,2 C 70 % 1032,9 hPa 0,0 l/m 2 min 0 min 560 W/m 9,7 km/h (2 Bft) 100,00 %
12.09.2019 12:48 21,8 C 23,3 C 21,7 C 71 % 1032,8 hPa 0,0 l/m 0 min 0 min 190 W/m 9,7 km/h (2 Bft) 97,83 %
12.09.2019 12:50 21,9 C 23,3 C 21,7 C 71 % 1033,0 hPa 0,0 l/m 0 min 0 min 230 W/m 9,7 km/h (2 Bft) 97,87 %
12.09.2019 12:52 21,9 C 23,9 C 21,7 C 71 % 1032,9 hPa 0,0 l/m 0 min 0 min 263 W/m 3,2 km/h (1 Bft) 95,74 %
12.09.2019 12:54 22,0 C 23,9 C 22,2 C 71 % 1032,9 hPa 0,0 l/m 0 min 0 min 275 W/m 16,1 km/h (3 Bft) 97,87 %
12.09.2019 12:56 22,1 C 23,3 C 21,7 C 70 % 1032,9 hPa 0,0 l/m 0 min 0 min 259 W/m 9,7 km/h (2 Bft) 93,62 %
12.09.2019 12:58 22,1 C 23,3 C 21,7 C 70 % 1033,0 hPa 0,0 l/m 0 min 0 min 233 W/m 9,7 km/h (2 Bft) 95,74 %
12.09.2019 13:00 22,1 C 22,8 C 21,7 C 70 % 1033,1 hPa 0,0 l/m 0 min 0 min 227 W/m 12,9 km/h (3 Bft) 95,65 %
12.09.2019 13:02 22,1 C 22,2 C 21,7 C 69 % 1033,1 hPa 0,0 l/m 0 min 0 min 238 W/m 16,1 km/h (3 Bft) 97,87 %
12.09.2019 13:04 22,1 C 25,0 C 21,7 C 69 % 1033,1 hPa 0,0 l/m 0 min 0 min 286 W/m 19,3 km/h (3 Bft) 97,87 %
12.09.2019 13:06 22,2 C 27,2 C 22,2 C 70 % 1033,1 hPa 0,0 l/m 2 min 0 min 810 W/m 9,7 km/h (2 Bft) 95,74 %
12.09.2019 13:08 22,4 C 28,9 C 22,2 C 71 % 1033,1 hPa 0,0 l/m 2 min 0 min 786 W/m 9,7 km/h (2 Bft) 95,74 %
12.09.2019 13:10 22,6 C 28,3 C 22,2 C 68 % 1033,1 hPa 0,0 l/m 2 min 0 min 780 W/m 16,1 km/h (3 Bft) 93,62 %
12.09.2019 13:12 22,7 C 28,9 C 22,8 C 69 % 1033,1 hPa 0,0 l/m 2 min 0 min 805 W/m 6,4 km/h (2 Bft) 91,30 %
12.09.2019 13:14 22,9 C 29,4 C 22,8 C 68 % 1033,1 hPa 0,0 l/m 2 min 0 min 827 W/m 9,7 km/h (2 Bft) 97,87 %
12.09.2019 13:16 23,1 C 29,4 C 22,8 C 69 % 1033,0 hPa 0,0 l/m 2 min 0 min 846 W/m 9,7 km/h (2 Bft) 95,74 %
12.09.2019 13:18 23,2 C 26,7 C 22,8 C 67 % 1033,0 hPa 0,0 l/m 2 min 0 min 433 W/m 12,9 km/h (3 Bft) 95,74 %
12.09.2019 13:20 23,2 C 27,8 C 22,8 C 67 % 1033,1 hPa 0,0 l/m 2 min 0 min 440 W/m 9,7 km/h (2 Bft) 95,74 %
12.09.2019 13:22 23,3 C 27,8 C 22,8 C 66 % 1033,1 hPa 0,0 l/m 2 min 0 min 830 W/m 22,5 km/h (4 Bft) 95,65 %
12.09.2019 13:24 23,4 C 28,3 C 22,8 C 65 % 1033,1 hPa 0,0 l/m 2 min 0 min 809 W/m 16,1 km/h (3 Bft) 95,74 %
12.09.2019 13:26 23,6 C 28,9 C 22,8 C 64 % 1033,0 hPa 0,0 l/m 2 min 0 min 809 W/m 22,5 km/h (4 Bft) 95,74 %
12.09.2019 13:28 23,6 C 29,4 C 23,3 C 64 % 1033,0 hPa 0,0 l/m 2 min 0 min 837 W/m 9,7 km/h (2 Bft) 93,62 %
12.09.2019 13:30 23,7 C 27,2 C 22,8 C 64 % 1033,0 hPa 0,0 l/m 2 min 0 min 687 W/m 9,7 km/h (2 Bft) 93,62 %
12.09.2019 13:32 23,8 C 26,7 C 22,8 C 63 % 1033,2 hPa 0,0 l/m 0 min 0 min 296 W/m 9,7 km/h (2 Bft) 91,49 %
12.09.2019 13:34 23,8 C 26,7 C 23,3 C 63 % 1033,1 hPa 0,0 l/m 2 min 0 min 353 W/m 9,7 km/h (2 Bft) 93,48 %
12.09.2019 13:36 23,8 C 27,8 C 23,3 C 63 % 1033,1 hPa 0,0 l/m 2 min 0 min 353 W/m 16,1 km/h (3 Bft) 93,62 %
12.09.2019 13:38 23,9 C 26,7 C 23,3 C 64 % 1033,1 hPa 0,0 l/m 2 min 0 min 353 W/m 19,3 km/h (3 Bft) 93,62 %
12.09.2019 13:40 23,9 C 26,7 C 23,3 C 64 % 1033,1 hPa 0,0 l/m 2 min 0 min 353 W/m 9,7 km/h (2 Bft) 93,62 %
12.09.2019 13:42 23,9 C 26,1 C 24,4 C 63 % 1033,1 hPa 0,0 l/m 0 min 0 min 313 W/m 12,9 km/h (3 Bft) 93,62 %
12.09.2019 13:44 23,9 C 27,8 C 26,7 C 63 % 1033,1 hPa 0,0 l/m 2 min 0 min 563 W/m 12,9 km/h (3 Bft) 93,62 %
12.09.2019 13:46 23,9 C 28,9 C 28,3 C 64 % 1033,1 hPa 0,0 l/m 2 min 0 min 879 W/m 9,7 km/h (2 Bft) 95,65 %
12.09.2019 13:48 24,0 C 30,0 C 29,4 C 64 % 1033,1 hPa 0,0 l/m 2 min 0 min 864 W/m 6,4 km/h (2 Bft) 95,74 %
12.09.2019 13:50 24,1 C 28,9 C 28,9 C 63 % 1033,1 hPa 0,0 l/m 2 min 0 min 838 W/m 19,3 km/h (3 Bft) 95,74 %
12.09.2019 13:52 24,1 C 28,9 C 28,9 C 63 % 1033,1 hPa 0,0 l/m 2 min 0 min 822 W/m 12,9 km/h (3 Bft) 93,62 %
12.09.2019 13:54 24,2 C 28,9 C 28,9 C 63 % 1033,1 hPa 0,0 l/m 2 min 0 min 838 W/m 9,7 km/h (2 Bft) 95,74 %
12.09.2019 13:56 24,3 C 28,3 C 27,8 C 63 % 1033,0 hPa 0,0 l/m 2 min 0 min 886 W/m 9,7 km/h (2 Bft) 95,74 %
12.09.2019 13:58 24,3 C 30,0 C 29,4 C 64 % 1033,0 hPa 0,0 l/m 2 min 0 min 858 W/m 9,7 km/h (2 Bft) 93,48 %
12.09.2019 14:00 24,4 C 29,4 C 28,9 C 62 % 1033,0 hPa 0,0 l/m 2 min 0 min 813 W/m 12,9 km/h (3 Bft) 93,62 %
12.09.2019 14:02 24,4 C 27,8 C 27,2 C 61 % 1032,9 hPa 0,0 l/m 2 min 0 min 816 W/m 16,1 km/h (3 Bft) 93,62 %
12.09.2019 14:04 24,4 C 25,6 C 25,0 C 61 % 1032,8 hPa 0,0 l/m 2 min 0 min 414 W/m 22,5 km/h (4 Bft) 95,74 %
12.09.2019 14:06 24,3 C 23,9 C 23,3 C 60 % 1032,9 hPa 0,0 l/m 0 min 0 min 149 W/m 16,1 km/h (3 Bft) 97,87 %
12.09.2019 14:08 24,2 C 23,3 C 22,8 C 60 % 1033,0 hPa 0,0 l/m 0 min 0 min 147 W/m 16,1 km/h (3 Bft) 95,74 %
12.09.2019 14:10 24,1 C 23,3 C 22,2 C 61 % 1032,9 hPa 0,0 l/m 0 min 0 min 172 W/m 9,7 km/h (2 Bft) 95,65 %
12.09.2019 14:12 24,0 C 25,6 C 22,8 C 62 % 1032,9 hPa 0,0 l/m 0 min 0 min 199 W/m 16,1 km/h (3 Bft) 100,00 %
12.09.2019 14:14 23,9 C 28,3 C 23,3 C 63 % 1032,9 hPa 0,0 l/m 2 min 0 min 765 W/m 3,2 km/h (1 Bft) 100,00 %
12.09.2019 14:16 24,0 C 28,9 C 23,9 C 64 % 1032,9 hPa 0,0 l/m 2 min 0 min 806 W/m 16,1 km/h (3 Bft) 97,87 %
12.09.2019 14:18 24,0 C 27,8 C 23,3 C 62 % 1032,8 hPa 0,0 l/m 2 min 0 min 785 W/m 25,7 km/h (4 Bft) 100,00 %
12.09.2019 14:20 24,0 C 27,8 C 23,3 C 62 % 1032,9 hPa 0,0 l/m 2 min 0 min 796 W/m 12,9 km/h (3 Bft) 100,00 %
12.09.2019 14:22 24,1 C 28,3 C 23,3 C 62 % 1032,9 hPa 0,0 l/m 2 min 0 min 825 W/m 16,1 km/h (3 Bft) 97,83 %
12.09.2019 14:24 24,1 C 29,4 C 23,3 C 62 % 1032,9 hPa 0,0 l/m 2 min 0 min 821 W/m 19,3 km/h (3 Bft) 97,87 %
12.09.2019 14:26 24,1 C 28,9 C 23,3 C 62 % 1032,9 hPa 0,0 l/m 2 min 0 min 804 W/m 16,1 km/h (3 Bft) 100,00 %
12.09.2019 14:28 24,2 C 29,4 C 23,9 C 62 % 1032,8 hPa 0,0 l/m 2 min 0 min 833 W/m 22,5 km/h (4 Bft) 100,00 %
12.09.2019 14:30 24,3 C 30,6 C 23,9 C 63 % 1032,8 hPa 0,0 l/m 2 min 0 min 855 W/m 9,7 km/h (2 Bft) 100,00 %
12.09.2019 14:32 24,4 C 29,4 C 23,9 C 62 % 1032,8 hPa 0,0 l/m 2 min 0 min 851 W/m 16,1 km/h (3 Bft) 100,00 %
12.09.2019 14:34 24,5 C 30,6 C 24,4 C 63 % 1032,8 hPa 0,0 l/m 2 min 0 min 853 W/m 12,9 km/h (3 Bft) 100,00 %
12.09.2019 14:36 24,7 C 31,7 C 24,4 C 63 % 1032,7 hPa 0,0 l/m 2 min 0 min 884 W/m 16,1 km/h (3 Bft) 100,00 %
12.09.2019 14:38 24,7 C 30,0 C 24,4 C 61 % 1032,8 hPa 0,0 l/m 2 min 0 min 907 W/m 16,1 km/h (3 Bft) 100,00 %
12.09.2019 14:40 24,7 C 26,1 C 23,9 C 61 % 1032,8 hPa 0,0 l/m 2 min 0 min 473 W/m 32,2 km/h (5 Bft) 100,00 %
12.09.2019 14:42 24,7 C 25,6 C 23,3 C 61 % 1032,8 hPa 0,0 l/m 0 min 0 min 239 W/m 12,9 km/h (3 Bft) 97,87 %
12.09.2019 14:44 24,7 C 28,3 C 23,9 C 62 % 1032,7 hPa 0,0 l/m 2 min 0 min 541 W/m 6,4 km/h (2 Bft) 100,00 %
12.09.2019 14:46 24,8 C 26,7 C 23,9 C 63 % 1032,7 hPa 0,0 l/m 2 min 0 min 759 W/m 16,1 km/h (3 Bft) 100,00 %
12.09.2019 14:48 24,8 C 25,6 C 23,9 C 62 % 1032,6 hPa 0,0 l/m 2 min 0 min 564 W/m 9,7 km/h (2 Bft) 100,00 %
12.09.2019 14:50 24,7 C 25,0 C 23,3 C 63 % 1032,6 hPa 0,0 l/m 0 min 0 min 206 W/m 9,7 km/h (2 Bft) 97,87 %
12.09.2019 14:52 24,6 C 24,4 C 23,3 C 63 % 1032,7 hPa 0,0 l/m 0 min 0 min 202 W/m 9,7 km/h (2 Bft) 100,00 %
12.09.2019 14:54 24,6 C 26,1 C 23,3 C 63 % 1032,6 hPa 0,0 l/m 0 min 0 min 233 W/m 12,9 km/h (3 Bft) 100,00 %
12.09.2019 14:56 24,5 C 26,1 C 23,3 C 63 % 1032,5 hPa 0,0 l/m 2 min 0 min 749 W/m 9,7 km/h (2 Bft) 100,00 %
12.09.2019 14:58 24,5 C 28,3 C 23,9 C 63 % 1032,4 hPa 0,0 l/m 0 min 0 min 294 W/m 12,9 km/h (3 Bft) 100,00 %
12.09.2019 15:00 24,6 C 27,2 C 23,9 C 62 % 1032,5 hPa 0,0 l/m 2 min 0 min 725 W/m 12,9 km/h (3 Bft) 100,00 %
12.09.2019 15:02 24,5 C 27,2 C 23,3 C 62 % 1032,4 hPa 0,0 l/m 2 min 0 min 794 W/m 12,9 km/h (3 Bft) 97,87 %
12.09.2019 15:04 24,5 C 28,3 C 23,3 C 62 % 1032,4 hPa 0,0 l/m 2 min 0 min 770 W/m 16,1 km/h (3 Bft) 100,00 %
12.09.2019 15:06 24,6 C 29,4 C 23,9 C 62 % 1032,4 hPa 0,0 l/m 2 min 0 min 765 W/m 12,9 km/h (3 Bft) 100,00 %
12.09.2019 15:08 24,7 C 30,0 C 23,9 C 62 % 1032,4 hPa 0,0 l/m 2 min 0 min 771 W/m 12,9 km/h (3 Bft) 100,00 %
12.09.2019 15:10 24,7 C 28,3 C 23,9 C 61 % 1032,2 hPa 0,0 l/m 2 min 0 min 716 W/m 9,7 km/h (2 Bft) 100,00 %
12.09.2019 15:12 24,7 C 27,8 C 23,3 C 59 % 1032,1 hPa 0,0 l/m 2 min 0 min 691 W/m 9,7 km/h (2 Bft) 100,00 %
12.09.2019 15:14 24,7 C 27,2 C 23,3 C 60 % 1032,1 hPa 0,0 l/m 2 min 0 min 717 W/m 16,1 km/h (3 Bft) 100,00 %
12.09.2019 15:16 24,7 C 26,1 C 23,3 C 61 % 1032,0 hPa 0,0 l/m 0 min 0 min 286 W/m 12,9 km/h (3 Bft) 100,00 %
12.09.2019 15:18 24,7 C 27,2 C 23,3 C 61 % 1032,0 hPa 0,0 l/m 0 min 0 min 138 W/m 9,7 km/h (2 Bft) 100,00 %
12.09.2019 15:20 24,7 C 25,6 C 23,3 C 61 % 1032,1 hPa 0,0 l/m 0 min 0 min 158 W/m 9,7 km/h (2 Bft) 100,00 %
12.09.2019 15:22 24,6 C 25,0 C 22,8 C 60 % 1032,0 hPa 0,0 l/m 0 min 0 min 205 W/m 16,1 km/h (3 Bft) 100,00 %
12.09.2019 15:24 24,6 C 26,7 C 23,3 C 61 % 1031,9 hPa 0,0 l/m 2 min 0 min 467 W/m 6,4 km/h (2 Bft) 100,00 %
12.09.2019 15:26 24,6 C 26,7 C 23,3 C 60 % 1032,0 hPa 0,0 l/m 2 min 0 min 682 W/m 12,9 km/h (3 Bft) 100,00 %
12.09.2019 15:28 24,6 C 27,2 C 23,3 C 60 % 1031,9 hPa 0,0 l/m 2 min 0 min 461 W/m 9,7 km/h (2 Bft) 100,00 %
12.09.2019 15:30 24,6 C 28,3 C 23,9 C 61 % 1031,8 hPa 0,0 l/m 2 min 0 min 682 W/m 16,1 km/h (3 Bft) 100,00 %
12.09.2019 15:32 24,6 C 26,7 C 23,3 C 59 % 1031,8 hPa 0,0 l/m 2 min 0 min 638 W/m 12,9 km/h (3 Bft) 100,00 %
12.09.2019 15:34 24,6 C 25,6 C 23,3 C 59 % 1031,7 hPa 0,0 l/m 2 min 0 min 488 W/m 16,1 km/h (3 Bft) 100,00 %
12.09.2019 15:36 24,5 C 26,1 C 22,8 C 59 % 1031,7 hPa 0,0 l/m 0 min 0 min 213 W/m 9,7 km/h (2 Bft) 97,87 %
12.09.2019 15:38 24,5 C 25,6 C 23,3 C 59 % 1031,7 hPa 0,0 l/m 2 min 0 min 668 W/m 12,9 km/h (3 Bft) 100,00 %
12.09.2019 15:40 24,5 C 26,1 C 22,8 C 59 % 1031,7 hPa 0,0 l/m 0 min 0 min 251 W/m 9,7 km/h (2 Bft) 100,00 %
12.09.2019 15:42 24,4 C 26,1 C 23,3 C 59 % 1031,7 hPa 0,0 l/m 0 min 0 min 251 W/m 16,1 km/h (3 Bft) 100,00 %
12.09.2019 15:44 24,4 C 25,0 C 22,8 C 60 % 1031,7 hPa 0,0 l/m 0 min 0 min 179 W/m 12,9 km/h (3 Bft) 100,00 %
12.09.2019 15:46 24,4 C 26,1 C 22,8 C 60 % 1031,7 hPa 0,0 l/m 0 min 0 min 175 W/m 6,4 km/h (2 Bft) 97,87 %
12.09.2019 15:48 24,4 C 25,6 C 22,8 C 60 % 1031,7 hPa 0,0 l/m 2 min 0 min 590 W/m 9,7 km/h (2 Bft) 100,00 %
12.09.2019 15:50 24,3 C 24,4 C 22,8 C 60 % 1031,6 hPa 0,0 l/m 0 min 0 min 161 W/m 19,3 km/h (3 Bft) 100,00 %
12.09.2019 15:52 24,3 C 24,4 C 22,8 C 60 % 1031,6 hPa 0,0 l/m 0 min 0 min 176 W/m 9,7 km/h (2 Bft) 100,00 %
12.09.2019 15:54 24,2 C 25,6 C 22,8 C 60 % 1031,5 hPa 0,0 l/m 0 min 0 min 252 W/m 12,9 km/h (3 Bft) 97,83 %
12.09.2019 15:56 24,2 C 27,2 C 23,3 C 60 % 1031,5 hPa 0,0 l/m 2 min 0 min 705 W/m 9,7 km/h (2 Bft) 100,00 %
12.09.2019 15:58 24,2 C 27,8 C 23,9 C 60 % 1031,5 hPa 0,0 l/m 2 min 0 min 703 W/m 22,5 km/h (4 Bft) 100,00 %
12.09.2019 16:00 24,2 C 26,1 C 23,3 C 60 % 1031,5 hPa 0,0 l/m 2 min 0 min 413 W/m 9,7 km/h (2 Bft) 100,00 %
12.09.2019 16:02 24,2 C 25,6 C 23,3 C 60 % 1031,4 hPa 0,0 l/m 0 min 0 min 177 W/m 12,9 km/h (3 Bft) 93,62 %
12.09.2019 16:04 24,2 C 24,4 C 22,8 C 61 % 1031,5 hPa 0,0 l/m 0 min 0 min 155 W/m 16,1 km/h (3 Bft) 95,74 %
12.09.2019 16:06 24,2 C 24,4 C 22,8 C 61 % 1031,4 hPa 0,0 l/m 0 min 0 min 209 W/m 9,7 km/h (2 Bft) 95,65 %
12.09.2019 16:08 24,1 C 26,7 C 23,3 C 60 % 1031,3 hPa 0,0 l/m 2 min 0 min 327 W/m 16,1 km/h (3 Bft) 95,74 %
12.09.2019 16:10 24,2 C 28,3 C 23,9 C 61 % 1031,3 hPa 0,0 l/m 2 min 0 min 700 W/m 12,9 km/h (3 Bft) 95,74 %
12.09.2019 16:12 24,2 C 28,9 C 23,9 C 61 % 1031,2 hPa 0,0 l/m 2 min 0 min 678 W/m 9,7 km/h (2 Bft) 93,62 %
12.09.2019 16:14 24,3 C 26,7 C 23,9 C 60 % 1031,3 hPa 0,0 l/m 2 min 0 min 334 W/m 19,3 km/h (3 Bft) 95,74 %
12.09.2019 16:16 24,3 C 27,2 C 23,3 C 60 % 1031,2 hPa 0,0 l/m 2 min 0 min 350 W/m 16,1 km/h (3 Bft) 97,87 %
12.09.2019 16:18 24,4 C 26,7 C 23,3 C 60 % 1031,1 hPa 0,0 l/m 2 min 0 min 620 W/m 6,4 km/h (2 Bft) 93,48 %
12.09.2019 16:20 24,4 C 27,2 C 23,3 C 60 % 1031,1 hPa 0,0 l/m 2 min 0 min 614 W/m 12,9 km/h (3 Bft) 95,74 %
12.09.2019 16:22 24,4 C 27,2 C 23,3 C 60 % 1031,0 hPa 0,0 l/m 2 min 0 min 597 W/m 16,1 km/h (3 Bft) 89,36 %
12.09.2019 16:24 24,4 C 28,3 C 23,9 C 60 % 1031,0 hPa 0,0 l/m 2 min 0 min 598 W/m 9,7 km/h (2 Bft) 95,74 %
12.09.2019 16:26 24,6 C 28,9 C 23,9 C 60 % 1031,0 hPa 0,0 l/m 2 min 0 min 605 W/m 12,9 km/h (3 Bft) 91,49 %
12.09.2019 16:28 24,6 C 28,3 C 23,9 C 59 % 1031,0 hPa 0,0 l/m 2 min 0 min 609 W/m 16,1 km/h (3 Bft) 93,62 %
12.09.2019 16:30 24,6 C 28,3 C 24,4 C 60 % 1030,8 hPa 0,0 l/m 2 min 0 min 599 W/m 12,9 km/h (3 Bft) 91,30 %
12.09.2019 16:32 24,7 C 26,7 C 23,9 C 59 % 1027,8 hPa 0,0 l/m 2 min 0 min 594 W/m 9,7 km/h (2 Bft) 92,00 %
12.09.2019 16:34 24,7 C 25,6 C 23,3 C 59 % 1027,7 hPa 0,0 l/m 0 min 0 min 189 W/m 19,3 km/h (3 Bft) 91,49 %
12.09.2019 16:36 24,7 C 25,6 C 23,3 C 59 % 1027,7 hPa 0,0 l/m 0 min 0 min 120 W/m 16,1 km/h (3 Bft) 93,62 %
12.09.2019 16:38 24,7 C 27,2 C 23,3 C 59 % 1027,6 hPa 0,0 l/m 2 min 0 min 456 W/m 12,9 km/h (3 Bft) 93,62 %
12.09.2019 16:40 24,7 C 27,8 C 23,3 C 59 % 1027,6 hPa 0,0 l/m 2 min 0 min 598 W/m 16,1 km/h (3 Bft) 93,62 %
12.09.2019 16:42 24,7 C 28,9 C 23,9 C 59 % 1027,5 hPa 0,0 l/m 2 min 0 min 582 W/m 9,7 km/h (2 Bft) 95,65 %
12.09.2019 16:44 24,8 C 28,3 C 24,4 C 59 % 1027,6 hPa 0,0 l/m 2 min 0 min 534 W/m 19,3 km/h (3 Bft) 97,87 %
12.09.2019 16:46 24,8 C 28,9 C 23,9 C 59 % 1027,5 hPa 0,0 l/m 2 min 0 min 531 W/m 9,7 km/h (2 Bft) 95,74 %
12.09.2019 16:48 24,9 C 27,2 C 23,9 C 58 % 1027,4 hPa 0,0 l/m 2 min 0 min 536 W/m 12,9 km/h (3 Bft) 93,62 %
12.09.2019 16:50 24,9 C 27,8 C 23,9 C 58 % 1027,4 hPa 0,0 l/m 2 min 0 min 536 W/m 6,4 km/h (2 Bft) 95,74 %
12.09.2019 16:52 24,9 C 27,8 C 23,9 C 58 % 1027,4 hPa 0,0 l/m 2 min 0 min 512 W/m 6,4 km/h (2 Bft) 91,49 %
12.09.2019 16:54 24,9 C 28,9 C 23,9 C 59 % 1027,3 hPa 0,0 l/m 2 min 0 min 503 W/m 9,7 km/h (2 Bft) 95,65 %
12.09.2019 16:56 25,0 C 27,8 C 23,9 C 58 % 1027,2 hPa 0,0 l/m 2 min 0 min 500 W/m 16,1 km/h (3 Bft) 93,62 %
12.09.2019 16:58 25,1 C 28,3 C 23,9 C 58 % 1027,2 hPa 0,0 l/m 2 min 0 min 493 W/m 9,7 km/h (2 Bft) 95,74 %
12.09.2019 17:00 25,1 C 27,8 C 23,3 C 58 % 1027,2 hPa 0,0 l/m 2 min 0 min 484 W/m 19,3 km/h (3 Bft) 97,87 %
12.09.2019 17:02 25,1 C 27,2 C 23,3 C 58 % 1027,1 hPa 0,0 l/m 2 min 0 min 449 W/m 16,1 km/h (3 Bft) 97,87 %
12.09.2019 17:04 25,0 C 25,0 C 23,3 C 58 % 1027,1 hPa 0,0 l/m 2 min 0 min 272 W/m 9,7 km/h (2 Bft) 97,83 %
12.09.2019 17:06 24,9 C 23,9 C 22,8 C 58 % 1027,1 hPa 0,0 l/m 0 min 0 min 104 W/m 16,1 km/h (3 Bft) 97,87 %
12.09.2019 17:08 24,9 C 26,1 C 22,8 C 59 % 1027,1 hPa 0,0 l/m 2 min 0 min 269 W/m 9,7 km/h (2 Bft) 97,87 %
12.09.2019 17:10 24,8 C 27,2 C 23,3 C 59 % 1027,0 hPa 0,0 l/m 2 min 0 min 495 W/m 9,7 km/h (2 Bft) 97,87 %
12.09.2019 17:12 24,8 C 27,8 C 23,3 C 59 % 1027,0 hPa 0,0 l/m 2 min 0 min 483 W/m 9,7 km/h (2 Bft) 97,87 %
12.09.2019 17:14 24,9 C 27,8 C 23,3 C 59 % 1027,0 hPa 0,0 l/m 2 min 0 min 461 W/m 16,1 km/h (3 Bft) 95,74 %
12.09.2019 17:16 24,8 C 27,2 C 23,3 C 58 % 1026,9 hPa 0,0 l/m 2 min 0 min 417 W/m 16,1 km/h (3 Bft) 97,83 %
12.09.2019 17:18 24,8 C 26,7 C 23,3 C 58 % 1026,9 hPa 0,0 l/m 2 min 0 min 406 W/m 16,1 km/h (3 Bft) 97,87 %
12.09.2019 17:20 24,8 C 27,2 C 22,8 C 58 % 1026,9 hPa 0,0 l/m 2 min 0 min 437 W/m 16,1 km/h (3 Bft) 97,87 %
12.09.2019 17:22 24,8 C 27,8 C 22,8 C 58 % 1026,9 hPa 0,0 l/m 2 min 0 min 443 W/m 9,7 km/h (2 Bft) 100,00 %
12.09.2019 17:24 24,8 C 27,8 C 22,8 C 59 % 1026,8 hPa 0,0 l/m 2 min 0 min 418 W/m 19,3 km/h (3 Bft) 100,00 %
12.09.2019 17:26 24,8 C 26,1 C 22,8 C 59 % 1026,9 hPa 0,0 l/m 2 min 0 min 265 W/m 9,7 km/h (2 Bft) 100,00 %
12.09.2019 17:28 24,8 C 25,6 C 22,8 C 58 % 1026,9 hPa 0,0 l/m 0 min 0 min 79 W/m 9,7 km/h (2 Bft) 100,00 %
12.09.2019 17:30 24,8 C 24,4 C 22,8 C 59 % 1026,9 hPa 0,0 l/m 0 min 0 min 106 W/m 12,9 km/h (3 Bft) 100,00 %
12.09.2019 17:32 24,7 C 26,1 C 22,8 C 59 % 1026,9 hPa 0,0 l/m 2 min 0 min 254 W/m 9,7 km/h (2 Bft) 100,00 %
12.09.2019 17:34 24,7 C 26,1 C 22,8 C 59 % 1026,9 hPa 0,0 l/m 2 min 0 min 381 W/m 9,7 km/h (2 Bft) 100,00 %
12.09.2019 17:36 24,6 C 25,0 C 22,8 C 59 % 1026,8 hPa 0,0 l/m 2 min 0 min 343 W/m 19,3 km/h (3 Bft) 100,00 %
12.09.2019 17:38 24,6 C 23,9 C 22,8 C 58 % 1026,8 hPa 0,0 l/m 0 min 0 min 107 W/m 19,3 km/h (3 Bft) 100,00 %
12.09.2019 17:40 24,5 C 23,9 C 22,2 C 59 % 1026,8 hPa 0,0 l/m 0 min 0 min 118 W/m 16,1 km/h (3 Bft) 100,00 %
12.09.2019 17:42 24,4 C 25,6 C 22,2 C 59 % 1026,8 hPa 0,0 l/m 2 min 0 min 359 W/m 6,4 km/h (2 Bft) 100,00 %
12.09.2019 17:44 24,4 C 26,1 C 22,8 C 59 % 1026,8 hPa 0,0 l/m 2 min 0 min 378 W/m 9,7 km/h (2 Bft) 100,00 %
12.09.2019 17:46 24,4 C 26,1 C 22,8 C 59 % 1026,8 hPa 0,0 l/m 2 min 0 min 375 W/m 9,7 km/h (2 Bft) 100,00 %
12.09.2019 17:48 24,4 C 25,0 C 22,8 C 60 % 1026,7 hPa 0,0 l/m 2 min 0 min 174 W/m 9,7 km/h (2 Bft) 100,00 %
12.09.2019 17:50 24,3 C 23,9 C 22,2 C 59 % 1026,7 hPa 0,0 l/m 0 min 0 min 73 W/m 16,1 km/h (3 Bft) 100,00 %
12.09.2019 17:52 24,2 C 24,4 C 22,2 C 59 % 1026,8 hPa 0,0 l/m 0 min 0 min 127 W/m 9,7 km/h (2 Bft) 97,87 %
12.09.2019 17:54 24,2 C 24,4 C 22,2 C 60 % 1026,7 hPa 0,0 l/m 2 min 0 min 320 W/m 16,1 km/h (3 Bft) 100,00 %
12.09.2019 17:56 24,1 C 23,9 C 22,2 C 60 % 1026,6 hPa 0,0 l/m 2 min 0 min 320 W/m 9,7 km/h (2 Bft) 100,00 %
12.09.2019 17:58 24,1 C 23,9 C 22,2 C 60 % 1026,5 hPa 0,0 l/m 2 min 0 min 300 W/m 6,4 km/h (2 Bft) 100,00 %
12.09.2019 18:00 24,0 C 23,9 C 22,2 C 61 % 1026,5 hPa 0,0 l/m 2 min 0 min 216 W/m 9,7 km/h (2 Bft) 100,00 %
12.09.2019 18:02 23,9 C 23,3 C 22,2 C 61 % 1026,6 hPa 0,0 l/m 0 min 0 min 114 W/m 9,7 km/h (2 Bft) 100,00 %
12.09.2019 18:04 23,9 C 23,3 C 22,2 C 61 % 1026,5 hPa 0,0 l/m 0 min 0 min 116 W/m 12,9 km/h (3 Bft) 100,00 %
12.09.2019 18:08 23,8 C 22,8 C 22,2 C 61 % 1026,6 hPa 0,0 l/m 0 min 0 min 86 W/m 19,3 km/h (3 Bft) 100,00 %
12.09.2019 18:10 23,8 C 22,8 C 22,2 C 61 % 1026,7 hPa 0,0 l/m 0 min 0 min 86 W/m 16,1 km/h (3 Bft) 100,00 %
12.09.2019 18:12 23,7 C 22,8 C 22,2 C 61 % 1026,5 hPa 0,0 l/m 0 min 0 min 76 W/m 16,1 km/h (3 Bft) 100,00 %
12.09.2019 18:14 23,7 C 22,8 C 21,7 C 61 % 1026,5 hPa 0,0 l/m 0 min 0 min 68 W/m 25,7 km/h (4 Bft) 100,00 %
12.09.2019 18:16 23,6 C 22,2 C 21,7 C 61 % 1026,5 hPa 0,0 l/m 0 min 0 min 64 W/m 12,9 km/h (3 Bft) 100,00 %
12.09.2019 18:18 23,5 C 22,2 C 21,7 C 61 % 1026,5 hPa 0,0 l/m 0 min 0 min 65 W/m 12,9 km/h (3 Bft) 100,00 %
12.09.2019 18:20 23,4 C 22,2 C 21,7 C 61 % 1026,5 hPa 0,0 l/m 0 min 0 min 71 W/m 12,9 km/h (3 Bft) 100,00 %
12.09.2019 18:22 23,4 C 22,8 C 21,7 C 61 % 1026,3 hPa 0,0 l/m 0 min 0 min 72 W/m 9,7 km/h (2 Bft) 100,00 %
12.09.2019 18:24 23,4 C 22,8 C 21,7 C 62 % 1026,4 hPa 0,0 l/m 0 min 0 min 76 W/m 19,3 km/h (3 Bft) 100,00 %
12.09.2019 18:26 23,3 C 22,8 C 21,7 C 62 % 1026,4 hPa 0,0 l/m 0 min 0 min 83 W/m 16,1 km/h (3 Bft) 100,00 %
12.09.2019 18:28 23,3 C 22,8 C 21,7 C 61 % 1026,4 hPa 0,0 l/m 0 min 0 min 81 W/m 12,9 km/h (3 Bft) 100,00 %
12.09.2019 18:30 23,3 C 22,8 C 21,7 C 61 % 1026,4 hPa 0,0 l/m 0 min 0 min 69 W/m 12,9 km/h (3 Bft) 100,00 %
12.09.2019 18:32 23,2 C 22,8 C 21,7 C 61 % 1026,4 hPa 0,0 l/m 0 min 0 min 65 W/m 19,3 km/h (3 Bft) 100,00 %
12.09.2019 18:34 23,2 C 22,2 C 21,7 C 61 % 1026,4 hPa 0,0 l/m 0 min 0 min 60 W/m 12,9 km/h (3 Bft) 100,00 %
12.09.2019 18:36 23,2 C 22,2 C 21,7 C 61 % 1026,4 hPa 0,0 l/m 0 min 0 min 51 W/m 16,1 km/h (3 Bft) 95,74 %
12.09.2019 18:38 23,2 C 22,2 C 21,7 C 61 % 1026,3 hPa 0,0 l/m 0 min 0 min 47 W/m 16,1 km/h (3 Bft) 97,87 %
12.09.2019 18:40 23,2 C 22,2 C 21,7 C 61 % 1026,3 hPa 0,0 l/m 0 min 0 min 45 W/m 16,1 km/h (3 Bft) 97,87 %
12.09.2019 18:42 23,2 C 22,2 C 21,7 C 62 % 1026,3 hPa 0,0 l/m 0 min 0 min 45 W/m 9,7 km/h (2 Bft) 97,87 %
12.09.2019 18:44 23,1 C 22,2 C 21,7 C 62 % 1026,3 hPa 0,0 l/m 0 min 0 min 43 W/m 16,1 km/h (3 Bft) 95,65 %
12.09.2019 18:46 23,1 C 22,2 C 21,7 C 62 % 1026,4 hPa 0,0 l/m 0 min 0 min 38 W/m 22,5 km/h (4 Bft) 97,87 %
12.09.2019 18:48 23,1 C 22,2 C 21,1 C 62 % 1026,4 hPa 0,0 l/m 0 min 0 min 33 W/m 9,7 km/h (2 Bft) 97,87 %
12.09.2019 18:50 23,1 C 21,7 C 21,1 C 62 % 1026,4 hPa 0,0 l/m 0 min 0 min 32 W/m 6,4 km/h (2 Bft) 100,00 %
12.09.2019 18:52 23,0 C 21,7 C 21,1 C 63 % 1026,4 hPa 0,0 l/m 0 min 0 min 33 W/m 6,4 km/h (2 Bft) 97,87 %
12.09.2019 18:54 23,0 C 21,7 C 21,1 C 63 % 1026,4 hPa 0,0 l/m 0 min 0 min 37 W/m 3,2 km/h (1 Bft) 95,74 %
12.09.2019 18:56 22,9 C 21,7 C 21,1 C 63 % 1026,4 hPa 0,0 l/m 0 min 0 min 40 W/m 6,4 km/h (2 Bft) 97,96 %
12.09.2019 18:58 22,9 C 21,7 C 21,1 C 63 % 1026,4 hPa 0,0 l/m 0 min 0 min 43 W/m 12,9 km/h (3 Bft) 97,87 %
12.09.2019 19:00 22,9 C 21,7 C 21,1 C 63 % 1026,4 hPa 0,0 l/m 0 min 0 min 46 W/m 9,7 km/h (2 Bft) 97,87 %
12.09.2019 19:02 22,8 C 21,7 C 21,1 C 63 % 1026,4 hPa 0,0 l/m 0 min 0 min 50 W/m 6,4 km/h (2 Bft) 97,83 %
12.09.2019 19:04 22,8 C 21,7 C 21,1 C 63 % 1026,4 hPa 0,0 l/m 0 min 0 min 49 W/m 6,4 km/h (2 Bft) 95,74 %
12.09.2019 19:06 22,8 C 21,7 C 21,1 C 63 % 1026,4 hPa 0,0 l/m 0 min 0 min 47 W/m 9,7 km/h (2 Bft) 97,87 %
12.09.2019 19:08 22,7 C 21,7 C 21,1 C 63 % 1026,4 hPa 0,0 l/m 0 min 0 min 46 W/m 12,9 km/h (3 Bft) 97,87 %
12.09.2019 19:10 22,7 C 21,7 C 21,1 C 64 % 1026,3 hPa 0,0 l/m 0 min 0 min 39 W/m 9,7 km/h (2 Bft) 95,74 %
12.09.2019 19:12 22,7 C 21,7 C 21,1 C 64 % 1026,3 hPa 0,0 l/m 0 min 0 min 34 W/m 6,4 km/h (2 Bft) 97,87 %
12.09.2019 19:14 22,6 C 21,7 C 21,1 C 64 % 1026,3 hPa 0,0 l/m 0 min 0 min 35 W/m 3,2 km/h (1 Bft) 93,48 %
12.09.2019 19:16 22,6 C 21,7 C 21,1 C 64 % 1026,3 hPa 0,0 l/m 0 min 0 min 33 W/m 9,7 km/h (2 Bft) 95,74 %
12.09.2019 19:18 22,6 C 21,1 C 20,6 C 64 % 1026,3 hPa 0,0 l/m 0 min 0 min 27 W/m 6,4 km/h (2 Bft) 95,74 %
12.09.2019 19:20 22,6 C 21,1 C 20,6 C 64 % 1026,3 hPa 0,0 l/m 0 min 0 min 25 W/m 6,4 km/h (2 Bft) 95,74 %
12.09.2019 19:22 22,5 C 21,1 C 20,6 C 64 % 1026,3 hPa 0,0 l/m 0 min 0 min 26 W/m 16,1 km/h (3 Bft) 95,74 %
12.09.2019 19:24 22,5 C 21,1 C 20,6 C 64 % 1026,3 hPa 0,0 l/m 0 min 0 min 25 W/m 9,7 km/h (2 Bft) 97,83 %
12.09.2019 19:26 22,4 C 21,1 C 20,6 C 64 % 1026,3 hPa 0,0 l/m 0 min 0 min 21 W/m 6,4 km/h (2 Bft) 95,74 %
12.09.2019 19:28 22,4 C 21,1 C 20,6 C 64 % 1026,3 hPa 0,0 l/m 0 min 0 min 17 W/m 3,2 km/h (1 Bft) 93,62 %
12.09.2019 19:30 22,4 C 21,1 C 20,6 C 65 % 1026,3 hPa 0,0 l/m 0 min 0 min 17 W/m 6,4 km/h (2 Bft) 97,87 %
12.09.2019 19:32 22,3 C 21,1 C 20,6 C 65 % 1026,2 hPa 0,0 l/m 0 min 0 min 17 W/m 6,4 km/h (2 Bft) 97,87 %
12.09.2019 19:34 22,3 C 21,1 C 20,6 C 65 % 1026,2 hPa 0,0 l/m 0 min 0 min 14 W/m 6,4 km/h (2 Bft) 97,87 %
12.09.2019 19:36 22,2 C 21,1 C 20,6 C 65 % 1026,2 hPa 0,0 l/m 0 min 0 min 12 W/m 0,0 km/h (0 Bft) 95,65 %
12.09.2019 19:38 22,2 C 21,1 C 20,6 C 65 % 1026,2 hPa 0,0 l/m 0 min 0 min 11 W/m 6,4 km/h (2 Bft) 95,74 %
12.09.2019 19:40 22,2 C 21,1 C 20,6 C 65 % 1026,1 hPa 0,0 l/m 0 min 0 min 8 W/m 6,4 km/h (2 Bft) 95,74 %
12.09.2019 19:42 22,2 C 21,1 C 20,6 C 65 % 1026,1 hPa 0,0 l/m 0 min 0 min 7 W/m 3,2 km/h (1 Bft) 95,74 %
12.09.2019 19:44 22,1 C 21,1 C 20,6 C 65 % 1026,1 hPa 0,0 l/m 0 min 0 min 6 W/m 6,4 km/h (2 Bft) 93,62 %
12.09.2019 19:46 22,1 C 21,1 C 20,6 C 65 % 1026,1 hPa 0,0 l/m 0 min 0 min 3 W/m 6,4 km/h (2 Bft) 93,62 %
12.09.2019 19:48 22,1 C 21,1 C 20,6 C 65 % 1026,2 hPa 0,0 l/m 0 min 0 min 0 W/m 9,7 km/h (2 Bft) 95,65 %
12.09.2019 19:50 22,1 C 21,1 C 20,6 C 65 % 1026,1 hPa 0,0 l/m 0 min 0 min 0 W/m 6,4 km/h (2 Bft) 95,74 %
12.09.2019 19:52 22,1 C 21,1 C 20,6 C 66 % 1026,1 hPa 0,0 l/m 0 min 0 min 0 W/m 6,4 km/h (2 Bft) 95,74 %
12.09.2019 19:54 22,0 C 21,1 C 20,6 C 65 % 1026,1 hPa 0,0 l/m 0 min 0 min 0 W/m 6,4 km/h (2 Bft) 95,74 %
12.09.2019 19:56 22,0 C 21,1 C 20,6 C 66 % 1026,1 hPa 0,0 l/m 0 min 0 min 0 W/m 3,2 km/h (1 Bft) 93,62 %
12.09.2019 19:58 22,0 C 20,6 C 20,6 C 66 % 1026,1 hPa 0,0 l/m 0 min 0 min 0 W/m 6,4 km/h (2 Bft) 95,74 %
12.09.2019 20:00 21,9 C 20,6 C 20,6 C 66 % 1026,1 hPa 0,0 l/m 0 min 0 min 0 W/m 0,0 km/h (0 Bft) 95,65 %
12.09.2019 20:02 21,9 C 20,6 C 20,6 C 66 % 1026,1 hPa 0,0 l/m 0 min 0 min 0 W/m 0,0 km/h (0 Bft) 95,74 %
12.09.2019 20:04 21,9 C 20,6 C 20,6 C 66 % 1026,1 hPa 0,0 l/m 0 min 0 min 0 W/m 0,0 km/h (0 Bft) 95,74 %
12.09.2019 20:06 21,9 C 20,6 C 20,6 C 66 % 1026,1 hPa 0,0 l/m 0 min 0 min 0 W/m 3,2 km/h (1 Bft) 95,74 %
12.09.2019 20:08 21,9 C 20,6 C 20,6 C 66 % 1026,1 hPa 0,0 l/m 0 min 0 min 0 W/m 6,4 km/h (2 Bft) 95,74 %
12.09.2019 20:10 21,9 C 20,6 C 20,6 C 66 % 1026,1 hPa 0,0 l/m 0 min 0 min 0 W/m 6,4 km/h (2 Bft) 95,74 %
12.09.2019 20:12 21,8 C 20,6 C 20,6 C 66 % 1026,1 hPa 0,0 l/m 0 min 0 min 0 W/m 0,0 km/h (0 Bft) 95,65 %
12.09.2019 20:14 21,8 C 20,6 C 20,0 C 66 % 1026,1 hPa 0,0 l/m 0 min 0 min 0 W/m 0,0 km/h (0 Bft) 97,87 %
12.09.2019 20:16 21,8 C 20,6 C 20,0 C 67 % 1026,1 hPa 0,0 l/m 0 min 0 min 0 W/m 3,2 km/h (1 Bft) 95,74 %
12.09.2019 20:18 21,8 C 20,6 C 20,0 C 67 % 1026,1 hPa 0,0 l/m 0 min 0 min 0 W/m 3,2 km/h (1 Bft) 97,87 %
12.09.2019 20:20 21,8 C 20,6 C 20,0 C 67 % 1026,1 hPa 0,0 l/m 0 min 0 min 0 W/m 3,2 km/h (1 Bft) 97,87 %
12.09.2019 20:22 21,7 C 20,6 C 20,0 C 66 % 1026,0 hPa 0,0 l/m 0 min 0 min 0 W/m 3,2 km/h (1 Bft) 97,87 %
12.09.2019 20:24 21,7 C 20,6 C 20,0 C 66 % 1026,0 hPa 0,0 l/m 0 min 0 min 0 W/m 3,2 km/h (1 Bft) 100,00 %
12.09.2019 20:26 21,7 C 20,6 C 20,0 C 66 % 1025,9 hPa 0,0 l/m 0 min 0 min 0 W/m 6,4 km/h (2 Bft) 100,00 %
12.09.2019 20:28 21,7 C 20,6 C 20,0 C 66 % 1025,9 hPa 0,0 l/m 0 min 0 min 0 W/m 0,0 km/h (0 Bft) 100,00 %
12.09.2019 20:32 21,7 C 20,0 C 20,0 C 67 % 1028,6 hPa 0,0 l/m 0 min 0 min 0 W/m 6,4 km/h (2 Bft) 100,00 %
12.09.2019 20:34 21,7 C 20,0 C 20,0 C 67 % 1028,6 hPa 0,0 l/m 0 min 0 min 0 W/m 3,2 km/h (1 Bft) 100,00 %
12.09.2019 20:36 21,6 C 20,0 C 19,4 C 67 % 1028,6 hPa 0,0 l/m 0 min 0 min 0 W/m 6,4 km/h (2 Bft) 100,00 %
12.09.2019 20:38 21,6 C 20,0 C 19,4 C 67 % 1028,6 hPa 0,0 l/m 0 min 0 min 0 W/m 0,0 km/h (0 Bft) 100,00 %
12.09.2019 20:40 21,6 C 19,4 C 19,4 C 67 % 1028,6 hPa 0,0 l/m 0 min 0 min 0 W/m 0,0 km/h (0 Bft) 100,00 %
12.09.2019 20:42 21,6 C 19,4 C 18,9 C 67 % 1028,6 hPa 0,0 l/m 0 min 0 min 0 W/m 3,2 km/h (1 Bft) 100,00 %
12.09.2019 20:44 21,5 C 19,4 C 18,9 C 67 % 1028,6 hPa 0,0 l/m 0 min 0 min 0 W/m 0,0 km/h (0 Bft) 100,00 %
12.09.2019 20:46 21,5 C 19,4 C 18,3 C 67 % 1028,5 hPa 0,0 l/m 0 min 0 min 0 W/m 0,0 km/h (0 Bft) 100,00 %
12.09.2019 20:48 21,4 C 18,9 C 18,3 C 67 % 1028,5 hPa 0,0 l/m 0 min 0 min 0 W/m 0,0 km/h (0 Bft) 100,00 %
12.09.2019 20:50 21,4 C 18,9 C 18,3 C 68 % 1028,6 hPa 0,0 l/m 0 min 0 min 0 W/m 0,0 km/h (0 Bft) 100,00 %
12.09.2019 20:52 21,4 C 18,9 C 18,3 C 68 % 1028,6 hPa 0,0 l/m 0 min 0 min 0 W/m 0,0 km/h (0 Bft) 100,00 %
12.09.2019 20:54 21,3 C 19,4 C 18,3 C 68 % 1028,5 hPa 0,0 l/m 0 min 0 min 0 W/m 0,0 km/h (0 Bft) 100,00 %
12.09.2019 20:55 21,3 C 19,4 C 18,3 C 68 % 1028,5 hPa 0,0 l/m 0 min 0 min 0 W/m 0,0 km/h (0 Bft) 100,00 %
12.09.2019 21:00 21,2 C 18,9 C 17,8 C 68 % 1028,6 hPa 0,0 l/m 0 min 0 min 0 W/m 0,0 km/h (0 Bft) 100,00 %
12.09.2019 21:05 21,1 C 18,9 C 17,2 C 69 % 1028,6 hPa 0,0 l/m 0 min 0 min 0 W/m 0,0 km/h (0 Bft) 100,00 %
12.09.2019 21:10 20,9 C 18,3 C 17,2 C 69 % 1028,6 hPa 0,0 l/m 0 min 0 min 0 W/m 0,0 km/h (0 Bft) 100,00 %
12.09.2019 21:15 20,8 C 18,3 C 16,7 C 70 % 1028,6 hPa 0,0 l/m 0 min 0 min 0 W/m 0,0 km/h (0 Bft) 100,00 %
12.09.2019 21:20 20,7 C 18,3 C 16,7 C 70 % 1028,5 hPa 0,0 l/m 0 min 0 min 0 W/m 0,0 km/h (0 Bft) 100,00 %
12.09.2019 21:34 20,3 C 18,3 C 16,7 C 71 % 1028,4 hPa 0,0 l/m 0 min 0 min 0 W/m 0,0 km/h (0 Bft) 100,00 %
12.09.2019 21:36 20,2 C 17,8 C 16,7 C 71 % 1028,4 hPa 0,0 l/m 0 min 0 min 0 W/m 0,0 km/h (0 Bft) 95,74 %
12.09.2019 21:38 20,2 C 17,8 C 16,7 C 71 % 1028,4 hPa 0,0 l/m 0 min 0 min 0 W/m 0,0 km/h (0 Bft) 93,48 %
12.09.2019 21:40 20,1 C 17,8 C 16,7 C 71 % 1028,3 hPa 0,0 l/m 0 min 0 min 0 W/m 0,0 km/h (0 Bft) 95,74 %
12.09.2019 21:42 20,1 C 17,8 C 16,7 C 72 % 1028,3 hPa 0,0 l/m 0 min 0 min 0 W/m 0,0 km/h (0 Bft) 95,74 %
12.09.2019 21:44 20,0 C 17,8 C 16,7 C 72 % 1028,3 hPa 0,0 l/m 0 min 0 min 0 W/m 0,0 km/h (0 Bft) 97,87 %
12.09.2019 21:46 19,9 C 17,8 C 16,1 C 72 % 1028,4 hPa 0,0 l/m 0 min 0 min 0 W/m 0,0 km/h (0 Bft) 95,74 %
12.09.2019 21:48 19,9 C 17,8 C 16,1 C 72 % 1028,4 hPa 0,0 l/m 0 min 0 min 0 W/m 0,0 km/h (0 Bft) 97,83 %
12.09.2019 21:50 19,9 C 17,8 C 16,1 C 72 % 1028,4 hPa 0,0 l/m 0 min 0 min 0 W/m 6,4 km/h (2 Bft) 97,87 %
12.09.2019 21:52 19,8 C 17,8 C 16,1 C 72 % 1028,4 hPa 0,0 l/m 0 min 0 min 0 W/m 3,2 km/h (1 Bft) 97,87 %
12.09.2019 21:54 19,8 C 18,3 C 16,7 C 72 % 1028,4 hPa 0,0 l/m 0 min 0 min 0 W/m 3,2 km/h (1 Bft) 97,87 %
12.09.2019 21:56 19,7 C 18,3 C 16,7 C 73 % 1028,3 hPa 0,0 l/m 0 min 0 min 0 W/m 3,2 km/h (1 Bft) 95,74 %
12.09.2019 21:58 19,7 C 18,3 C 16,7 C 73 % 1028,3 hPa 0,0 l/m 0 min 0 min 0 W/m 3,2 km/h (1 Bft) 97,87 %
12.09.2019 22:00 19,6 C 17,8 C 16,7 C 73 % 1028,3 hPa 0,0 l/m 0 min 0 min 0 W/m 0,0 km/h (0 Bft) 97,87 %
12.09.2019 22:02 19,6 C 17,8 C 16,7 C 74 % 1028,4 hPa 0,0 l/m 0 min 0 min 0 W/m 0,0 km/h (0 Bft) 95,65 %
12.09.2019 22:04 19,6 C 17,8 C 16,1 C 74 % 1028,4 hPa 0,0 l/m 0 min 0 min 0 W/m 0,0 km/h (0 Bft) 95,74 %
12.09.2019 22:06 19,5 C 17,8 C 16,1 C 74 % 1028,4 hPa 0,0 l/m 0 min 0 min 0 W/m 0,0 km/h (0 Bft) 97,87 %
12.09.2019 22:08 19,4 C 17,8 C 16,1 C 74 % 1028,3 hPa 0,0 l/m 0 min 0 min 0 W/m 0,0 km/h (0 Bft) 100,00 %
12.09.2019 22:10 19,4 C 17,8 C 16,1 C 74 % 1028,3 hPa 0,0 l/m 0 min 0 min 0 W/m 0,0 km/h (0 Bft) 95,74 %
12.09.2019 22:12 19,4 C 17,8 C 15,6 C 74 % 1028,3 hPa 0,0 l/m 0 min 0 min 0 W/m 0,0 km/h (0 Bft) 97,83 %
12.09.2019 22:14 19,3 C 17,8 C 15,6 C 74 % 1028,3 hPa 0,0 l/m 0 min 0 min 0 W/m 0,0 km/h (0 Bft) 97,87 %
12.09.2019 22:16 19,3 C 17,8 C 16,1 C 74 % 1028,2 hPa 0,0 l/m 0 min 0 min 0 W/m 0,0 km/h (0 Bft) 100,00 %
12.09.2019 22:18 19,3 C 17,8 C 16,1 C 74 % 1028,3 hPa 0,0 l/m 0 min 0 min 0 W/m 0,0 km/h (0 Bft) 100,00 %
12.09.2019 22:20 19,3 C 17,8 C 16,1 C 75 % 1028,2 hPa 0,0 l/m 0 min 0 min 0 W/m 3,2 km/h (1 Bft) 97,87 %
12.09.2019 22:22 19,2 C 17,8 C 16,1 C 75 % 1028,2 hPa 0,0 l/m 0 min 0 min 0 W/m 3,2 km/h (1 Bft) 97,87 %
12.09.2019 22:24 19,2 C 17,8 C 16,1 C 75 % 1028,2 hPa 0,0 l/m 0 min 0 min 0 W/m 0,0 km/h (0 Bft) 97,83 %
12.09.2019 22:26 19,1 C 17,8 C 16,1 C 75 % 1028,2 hPa 0,0 l/m 0 min 0 min 0 W/m 0,0 km/h (0 Bft) 97,87 %
12.09.2019 22:28 19,1 C 17,8 C 16,1 C 75 % 1028,3 hPa 0,0 l/m 0 min 0 min 0 W/m 0,0 km/h (0 Bft) 97,87 %
12.09.2019 22:30 19,1 C 17,8 C 16,1 C 76 % 1028,2 hPa 0,0 l/m 0 min 0 min 0 W/m 0,0 km/h (0 Bft) 97,87 %
12.09.2019 22:32 19,1 C 17,2 C 16,1 C 76 % 1028,2 hPa 0,0 l/m 0 min 0 min 0 W/m 0,0 km/h (0 Bft) 93,62 %
12.09.2019 22:34 19,0 C 17,2 C 15,6 C 76 % 1028,2 hPa 0,0 l/m 0 min 0 min 0 W/m 0,0 km/h (0 Bft) 93,62 %
12.09.2019 22:36 19,0 C 17,2 C 15,6 C 76 % 1028,3 hPa 0,0 l/m 0 min 0 min 0 W/m 0,0 km/h (0 Bft) 97,83 %
12.09.2019 22:38 19,0 C 17,2 C 15,6 C 76 % 1028,2 hPa 0,0 l/m 0 min 0 min 0 W/m 3,2 km/h (1 Bft) 100,00 %
12.09.2019 22:40 18,9 C 17,2 C 16,7 C 76 % 1028,2 hPa 0,0 l/m 0 min 0 min 0 W/m 3,2 km/h (1 Bft) 97,87 %
12.09.2019 22:42 18,9 C 17,2 C 16,7 C 76 % 1028,1 hPa 0,0 l/m 0 min 0 min 0 W/m 3,2 km/h (1 Bft) 97,87 %
12.09.2019 22:44 18,9 C 17,2 C 16,7 C 76 % 1028,1 hPa 0,0 l/m 0 min 0 min 0 W/m 3,2 km/h (1 Bft) 97,87 %
12.09.2019 22:46 18,8 C 17,2 C 16,7 C 76 % 1028,1 hPa 0,0 l/m 0 min 0 min 0 W/m 3,2 km/h (1 Bft) 97,87 %
12.09.2019 22:48 18,8 C 17,2 C 16,7 C 77 % 1028,1 hPa 0,0 l/m 0 min 0 min 0 W/m 6,4 km/h (2 Bft) 97,83 %
12.09.2019 22:50 18,8 C 17,8 C 17,2 C 77 % 1028,1 hPa 0,0 l/m 0 min 0 min 0 W/m 0,0 km/h (0 Bft) 95,74 %
12.09.2019 22:52 18,8 C 17,8 C 17,2 C 77 % 1028,2 hPa 0,0 l/m 0 min 0 min 0 W/m 6,4 km/h (2 Bft) 95,74 %
12.09.2019 22:54 18,7 C 17,8 C 17,2 C 77 % 1028,2 hPa 0,0 l/m 0 min 0 min 0 W/m 0,0 km/h (0 Bft) 95,74 %
12.09.2019 22:56 18,7 C 17,2 C 17,2 C 77 % 1028,1 hPa 0,0 l/m 0 min 0 min 0 W/m 0,0 km/h (0 Bft) 95,74 %
12.09.2019 22:58 18,7 C 17,2 C 16,7 C 77 % 1028,1 hPa 0,0 l/m 0 min 0 min 0 W/m 6,4 km/h (2 Bft) 95,74 %
12.09.2019 23:00 18,7 C 17,2 C 16,7 C 78 % 1028,1 hPa 0,0 l/m 0 min 0 min 0 W/m 3,2 km/h (1 Bft) 95,65 %
12.09.2019 23:02 18,7 C 17,2 C 16,7 C 78 % 1028,1 hPa 0,0 l/m 0 min 0 min 0 W/m 3,2 km/h (1 Bft) 95,74 %
12.09.2019 23:04 18,7 C 17,2 C 16,7 C 78 % 1028,1 hPa 0,0 l/m 0 min 0 min 0 W/m 0,0 km/h (0 Bft) 97,87 %
12.09.2019 23:06 18,6 C 17,2 C 16,7 C 78 % 1028,0 hPa 0,0 l/m 0 min 0 min 0 W/m 3,2 km/h (1 Bft) 95,74 %
12.09.2019 23:08 18,6 C 17,2 C 16,7 C 78 % 1028,1 hPa 0,0 l/m 0 min 0 min 0 W/m 0,0 km/h (0 Bft) 95,74 %
12.09.2019 23:10 18,6 C 17,2 C 16,7 C 78 % 1028,2 hPa 0,0 l/m 0 min 0 min 0 W/m 3,2 km/h (1 Bft) 97,83 %
12.09.2019 23:12 18,6 C 17,2 C 16,7 C 78 % 1028,2 hPa 0,0 l/m 0 min 0 min 0 W/m 0,0 km/h (0 Bft) 97,87 %
12.09.2019 23:14 18,6 C 17,2 C 16,7 C 78 % 1028,1 hPa 0,0 l/m 0 min 0 min 0 W/m 0,0 km/h (0 Bft) 97,87 %
12.09.2019 23:16 18,6 C 17,2 C 16,7 C 78 % 1028,1 hPa 0,0 l/m 0 min 0 min 0 W/m 0,0 km/h (0 Bft) 95,74 %
12.09.2019 23:18 18,5 C 17,2 C 16,7 C 78 % 1028,1 hPa 0,0 l/m 0 min 0 min 0 W/m 0,0 km/h (0 Bft) 97,87 %
12.09.2019 23:20 18,5 C 17,2 C 16,7 C 79 % 1028,1 hPa 0,0 l/m 0 min 0 min 0 W/m 0,0 km/h (0 Bft) 97,87 %
12.09.2019 23:22 18,5 C 17,2 C 16,7 C 79 % 1028,1 hPa 0,0 l/m 0 min 0 min 0 W/m 0,0 km/h (0 Bft) 97,87 %
12.09.2019 23:24 18,4 C 17,2 C 17,2 C 79 % 1028,1 hPa 0,0 l/m 0 min 0 min 0 W/m 0,0 km/h (0 Bft) 97,83 %
12.09.2019 23:26 18,4 C 17,2 C 16,7 C 79 % 1028,2 hPa 0,0 l/m 0 min 0 min 0 W/m 0,0 km/h (0 Bft) 95,74 %
12.09.2019 23:28 18,4 C 17,2 C 16,7 C 79 % 1028,2 hPa 0,0 l/m 0 min 0 min 0 W/m 3,2 km/h (1 Bft) 97,87 %
12.09.2019 23:30 18,4 C 17,2 C 16,7 C 79 % 1028,1 hPa 0,0 l/m 0 min 0 min 0 W/m 3,2 km/h (1 Bft) 97,87 %
12.09.2019 23:32 18,4 C 17,2 C 16,7 C 80 % 1028,1 hPa 0,0 l/m 0 min 0 min 0 W/m 3,2 km/h (1 Bft) 97,87 %
12.09.2019 23:34 18,4 C 17,2 C 16,7 C 80 % 1028,1 hPa 0,0 l/m 0 min 0 min 0 W/m 0,0 km/h (0 Bft) 97,87 %
12.09.2019 23:36 18,4 C 17,2 C 16,7 C 80 % 1028,1 hPa 0,0 l/m 0 min 0 min 0 W/m 3,2 km/h (1 Bft) 97,83 %
12.09.2019 23:38 18,4 C 17,2 C 16,7 C 80 % 1028,0 hPa 0,0 l/m 0 min 0 min 0 W/m 0,0 km/h (0 Bft) 97,87 %
12.09.2019 23:40 18,4 C 17,2 C 16,7 C 80 % 1028,1 hPa 0,0 l/m 0 min 0 min 0 W/m 3,2 km/h (1 Bft) 95,74 %
12.09.2019 23:42 18,3 C 17,2 C 16,7 C 80 % 1028,1 hPa 0,0 l/m 0 min 0 min 0 W/m 3,2 km/h (1 Bft) 97,87 %
12.09.2019 23:44 18,3 C 17,2 C 16,7 C 80 % 1028,2 hPa 0,0 l/m 0 min 0 min 0 W/m 3,2 km/h (1 Bft) 97,87 %
12.09.2019 23:46 18,3 C 17,2 C 16,7 C 81 % 1028,1 hPa 0,0 l/m 0 min 0 min 0 W/m 3,2 km/h (1 Bft) 97,83 %
12.09.2019 23:48 18,3 C 17,2 C 16,7 C 81 % 1028,1 hPa 0,0 l/m 0 min 0 min 0 W/m 0,0 km/h (0 Bft) 97,87 %
12.09.2019 23:50 18,3 C 17,2 C 17,2 C 81 % 1028,0 hPa 0,0 l/m 0 min 0 min 0 W/m 3,2 km/h (1 Bft) 95,74 %
12.09.2019 23:52 18,3 C 17,2 C 17,2 C 82 % 1028,1 hPa 0,0 l/m 0 min 0 min 0 W/m 3,2 km/h (1 Bft) 95,74 %
12.09.2019 23:54 18,3 C 17,2 C 17,2 C 82 % 1028,1 hPa 0,0 l/m 0 min 0 min 0 W/m 3,2 km/h (1 Bft) 95,74 %
12.09.2019 23:56 18,3 C 17,2 C 17,2 C 82 % 1028,0 hPa 0,0 l/m 0 min 0 min 0 W/m 3,2 km/h (1 Bft) 100,00 %
12.09.2019 23:58 18,3 C 17,2 C 17,2 C 82 % 1028,1 hPa 0,0 l/m 0 min 0 min 0 W/m 3,2 km/h (1 Bft) 100,00 %
_ Min-Zeit 01:20 00:24 00:00 16:48 00:02 - - - - 00:02 00:02
Minimum _ 16,2 C 15,0 C 14,4 C 58 % 1024,0 hPa - - - - 0,0 km/h (0 Bft) 7,14 %
_ Max-Zeit 16:58 14:36 13:48 04:50 13:32 00:00 10:00 00:00 14:38 14:40 01:36
Maximum _ 25,1 C 31,7 C 29,4 C 97 % 1033,2 hPa 0,0 l/m 2 min 0 min 907 W/m 32,2 km/h
S-SO (5 Bft)
100,00 %
Durchschnitt _ 19,8 C 20,0 C 18,7 C 80 % 1027,9 hPa #0,0 l/m #4:58 h #0 min. 291 W/m 7,9 km/h (2 Bft) 97,43 %
© 2019 W. Hausmann